GFSGL_850_thetae_000.txt.gz
Theta_e
306 306 305 304 303 303 302 300 299 298 300 301 297 295 294 293 292 292 292 292 292 292 291 291 291 291 291 291 291 291 291 292 293 293 293 294 294 295 295 295 296 296 297
306 305 304 302 301 300 300 299 297 296 295 295 293 292 292 292 292 292 292 291 289 289 288 288 288 289 290 290 290 290 291 291 291 292 292 292 292 293 294 294 295 296 295
306 302 302 300 299 298 297 296 296 295 295 293 292 291 291 291 291 290 289 288 289 289 289 289 289 289 289 289 289 290 290 290 291 291 292 292 292 292 293 293 294 294 295
303 302 298 297 296 295 294 295 295 295 295 292 292 291 291 291 290 289 288 288 288 288 289 289 288 288 288 289 289 289 289 289 289 289 290 290 290 291 291 291 292 292 293
301 301 297 295 295 295 296 295 296 295 293 292 292 291 291 289 288 288 288 288 288 288 288 287 287 287 287 287 287 287 287 287 287 286 286 287 287 288 288 289 290 290 291
301 300 298 296 296 296 297 296 294 293 292 292 292 290 288 287 287 287 287 287 287 287 286 286 285 285 285 285 285 284 284 284 284 284 285 285 285 285 286 287 288 289 290
299 299 298 297 296 295 294 293 293 292 292 291 289 288 287 286 287 287 286 286 285 284 283 283 283 283 283 284 284 284 284 285 284 284 284 284 285 285 285 286 287 287 288
297 297 297 297 296 293 292 292 292 291 289 288 287 286 286 286 285 285 285 284 283 283 283 283 283 283 283 283 284 285 284 284 285 285 285 285 285 285 285 285 286 286 286
295 293 292 293 292 292 292 291 289 288 287 286 286 285 285 285 285 284 283 282 282 282 282 282 282 282 283 283 283 283 283 284 284 284 284 285 285 285 285 285 286 286 286
292 291 291 291 290 289 288 287 287 286 286 285 285 285 285 284 283 283 282 282 282 282 282 282 283 283 283 282 283 283 283 284 284 284 285 284 285 285 285 286 286 286 287
293 292 290 288 287 287 287 286 286 285 285 285 284 284 283 282 282 282 282 281 282 282 283 283 283 283 283 283 283 283 283 284 284 284 284 285 285 285 286 285 286 286 286
290 289 287 287 287 286 286 286 285 285 284 284 283 282 282 282 282 282 282 282 282 283 283 283 282 283 283 284 284 284 284 284 284 284 284 284 285 285 286 286 286 286 286
289 287 287 286 286 286 285 284 284 284 283 282 281 281 281 281 281 282 282 282 283 283 283 282 282 282 282 283 284 284 284 285 285 285 285 285 285 285 285 286 286 286 286
287 286 286 285 286 285 284 283 283 282 281 281 280 280 280 281 281 282 282 282 283 283 282 281 281 281 282 282 283 284 285 286 286 286 286 286 286 285 285 285 285 286 286
286 286 286 285 285 284 284 282 282 281 281 281 280 280 280 280 281 281 281 282 283 283 282 281 281 281 281 282 284 285 287 287 286 286 286 286 286 285 285 285 285 286 287
287 286 286 285 285 284 283 282 282 281 280 280 279 280 280 280 280 281 282 282 282 282 282 280 280 280 280 281 283 284 285 286 287 287 287 286 286 286 286 286 286 287 287
287 287 286 286 285 284 283 282 281 280 280 279 279 279 280 279 280 281 281 282 282 282 280 280 280 279 280 280 281 282 284 285 286 287 287 286 287 287 287 287 287 288 288
287 286 286 285 284 283 282 281 280 280 279 278 279 279 279 279 280 281 281 281 282 281 280 280 280 279 279 280 280 281 282 284 285 285 286 287 288 288 288 288 288 288 288
287 286 285 284 283 282 282 281 280 279 278 278 278 279 279 279 279 280 280 280 280 279 280 280 279 279 279 279 280 280 280 281 283 284 285 286 287 286 287 287 287 287 287
287 285 284 283 282 282 281 280 279 279 278 277 277 278 278 278 279 279 279 279 279 279 279 279 279 279 279 279 280 280 280 280 281 282 283 284 285 285 285 285 285 285 285
286 285 283 282 281 281 280 280 279 278 277 277 277 277 277 277 277 278 278 278 278 278 279 279 279 279 279 279 279 280 280 280 280 280 281 281 282 283 284 284 284 283 283
285 284 283 282 281 280 280 279 278 278 277 277 276 276 277 277 277 277 277 277 277 277 278 278 278 279 279 279 279 279 280 280 280 279 280 280 281 281 281 282 282 282 282
285 284 283 281 280 280 279 279 278 278 277 277 276 276 276 276 276 276 276 277 277 277 277 278 278 278 278 278 279 279 279 279 279 279 279 280 280 280 280 280 280 280 280
284 283 281 280 280 280 279 278 278 277 277 276 276 275 275 275 275 275 275 276 275 274 275 275 276 276 277 277 278 277 277 277 278 279 279 279 279 279 279 279 279 279 279
283 282 281 280 280 279 279 278 277 277 276 276 275 275 274 275 275 275 275 274 273 273 273 273 273 274 275 275 276 276 276 276 276 276 277 278 278 278 278 278 278 278 278
283 282 280 280 280 280 279 278 277 277 276 275 275 274 274 274 275 275 274 273 273 273 273 273 273 273 274 274 274 274 275 275 275 275 276 276 276 277 277 277 277 277 277

GFSGL_850_thetae_003.txt.gz
Theta_e
304 304 304 301 301 301 301 301 301 298 296 298 299 298 295 292 292 292 292 292 292 292 291 290 289 288 288 288 288 289 289 290 290 291 291 291 292 292 292 292 294 294 295
305 305 303 301 300 300 299 299 297 297 298 295 294 293 291 291 290 291 291 290 289 288 288 288 288 288 288 288 289 289 288 289 289 290 291 291 291 291 291 291 291 292 293
305 304 301 300 299 298 296 296 295 295 294 294 293 292 291 290 290 290 289 289 287 287 288 287 288 288 288 288 288 288 288 289 289 290 290 290 290 290 290 290 291 290 290
302 300 298 299 296 295 294 294 294 293 295 293 292 292 291 291 290 289 288 287 287 287 287 287 288 288 287 287 287 287 287 287 287 287 287 287 287 288 288 289 289 288 288
299 298 299 295 293 294 294 294 294 295 294 293 292 292 291 290 288 287 286 286 287 287 287 287 286 286 286 286 285 285 285 285 286 286 285 285 285 286 286 287 287 287 287
297 297 298 297 295 295 295 295 294 293 293 292 291 290 289 287 287 286 287 287 286 286 285 284 284 284 284 283 283 283 283 283 283 284 284 284 284 284 284 285 285 286 287
297 296 296 296 295 294 293 292 291 291 291 289 288 288 287 286 286 286 285 285 284 284 283 283 283 283 283 283 283 283 283 283 283 284 284 284 284 284 284 284 285 285 286
297 294 292 292 292 292 292 292 290 289 288 287 287 286 286 285 285 285 284 284 283 283 282 282 282 282 282 282 282 282 282 283 283 284 284 284 284 284 284 284 284 285 285
292 292 292 291 290 289 288 288 287 287 286 286 285 285 285 284 284 284 283 282 282 283 282 282 282 282 282 282 282 282 282 282 282 283 283 284 284 284 284 285 285 285 285
292 292 291 289 288 287 286 286 286 286 285 285 285 284 284 283 282 282 282 282 281 282 282 282 283 283 282 282 282 282 283 283 282 282 283 284 284 284 284 284 285 285 285
293 290 289 287 286 286 286 286 286 285 284 284 284 283 282 281 281 281 281 281 281 282 282 283 282 282 282 282 283 283 284 284 283 283 283 283 284 284 284 284 285 285 286
290 288 286 286 286 285 285 285 284 284 283 283 282 282 281 281 281 281 282 282 282 282 283 283 282 281 281 281 282 283 283 284 284 284 284 284 284 284 284 284 285 286 286
287 286 286 286 285 285 284 284 284 283 282 281 281 281 280 280 281 281 281 282 282 282 283 282 281 281 281 281 282 282 283 283 284 284 284 284 284 285 284 284 285 286 286
287 286 286 286 285 284 284 284 283 282 281 281 280 280 279 279 280 281 280 281 282 282 282 282 281 280 280 281 282 283 284 285 285 286 285 285 285 284 284 285 285 285 285
287 287 287 286 285 285 284 283 282 281 280 280 279 279 279 279 279 280 280 281 281 281 281 281 280 280 280 281 282 283 284 285 286 286 286 285 285 285 285 285 284 285 285
287 287 287 286 286 285 284 283 281 280 280 279 278 278 278 278 278 279 280 281 281 281 281 280 279 279 279 280 281 282 283 285 286 286 287 286 286 285 285 285 285 285 285
288 288 287 286 285 284 283 282 281 280 279 278 278 278 278 278 278 279 280 280 281 281 280 279 279 279 279 279 279 280 282 283 284 285 286 285 286 286 286 286 286 287 287
288 288 287 285 284 283 282 281 280 279 278 278 277 277 278 278 279 279 280 280 281 280 279 279 279 279 279 279 279 279 280 282 284 284 285 286 287 287 287 287 287 287 287
288 287 286 284 283 282 281 281 280 279 278 277 277 277 278 278 278 278 279 279 279 279 279 278 279 279 279 279 279 279 279 280 281 283 284 285 285 286 285 286 286 286 286
287 286 285 283 282 281 281 280 279 278 277 277 277 276 277 277 278 278 278 278 278 278 278 278 278 279 279 279 279 279 279 280 280 281 281 282 283 284 284 284 284 284 284
286 285 283 282 282 281 280 279 278 278 277 276 276 276 276 276 277 277 277 277 278 278 278 278 278 278 279 279 279 279 279 279 280 280 280 280 281 282 282 283 283 283 283
285 284 283 282 281 280 279 279 278 278 277 276 276 275 276 276 276 276 276 276 277 277 277 277 278 278 278 278 278 278 278 279 279 279 279 279 280 280 281 281 281 281 281
284 284 282 282 281 280 279 278 277 277 277 276 275 275 275 275 275 275 275 276 276 276 275 276 276 277 277 277 277 277 277 277 278 278 279 279 279 279 279 279 280 280 280
284 282 281 281 280 280 279 278 277 277 276 275 275 274 274 274 274 274 275 275 273 273 273 273 274 275 275 276 276 276 276 276 276 276 278 278 279 278 278 278 278 278 278
283 282 281 281 280 280 279 278 277 276 276 275 275 274 274 274 274 274 275 273 273 273 273 273 274 274 274 274 274 275 275 275 275 275 275 276 277 278 278 278 278 278 278
282 282 281 281 281 280 280 279 278 277 276 276 275 274 274 275 275 275 273 272 273 272 272 273 273 273 273 274 274 274 274 275 275 274 275 275 275 275 276 276 276 277 277

GFSGL_850_thetae_006.txt.gz
Theta_e
301 303 303 301 299 298 299 299 299 298 297 297 297 297 297 295 292 291 292 292 291 291 290 289 288 288 287 287 287 287 288 288 289 289 289 289 289 290 290 290 291 292 292
304 303 301 299 298 299 298 297 296 295 295 294 296 294 292 292 291 290 290 290 290 289 288 287 287 287 287 287 287 288 288 288 289 289 289 289 289 289 290 290 291 289 289
303 300 299 297 298 297 295 295 294 294 294 293 295 294 292 292 291 291 290 289 288 287 286 286 286 287 287 287 287 287 287 287 287 287 287 287 288 288 288 289 289 289 289
299 298 297 296 297 294 294 294 293 293 294 294 295 293 292 292 290 290 289 287 286 286 286 286 287 287 286 286 286 286 285 285 285 285 285 286 286 286 286 286 287 287 287
298 297 296 296 296 294 293 293 293 294 294 294 293 292 292 290 289 287 286 286 286 286 285 285 285 284 284 283 283 283 283 283 284 284 285 285 285 285 285 285 285 285 285
298 297 296 295 295 295 294 293 293 292 292 291 291 290 289 288 286 286 286 286 285 285 284 284 283 283 284 283 283 283 283 283 283 283 283 283 283 283 284 284 284 284 285
297 295 292 292 292 291 291 291 291 290 289 288 288 287 286 286 285 285 285 284 284 283 283 282 283 283 283 282 283 282 282 282 282 283 283 283 283 283 284 284 284 284 284
295 294 292 292 291 290 289 288 287 287 287 286 286 285 285 285 284 284 284 283 282 282 282 282 283 283 283 283 282 282 282 282 282 282 282 283 283 283 284 284 284 284 284
292 292 291 290 289 288 286 286 286 286 286 285 285 284 284 284 283 282 281 281 281 281 282 283 282 282 282 282 281 282 282 282 282 282 282 282 283 283 284 284 284 284 284
292 292 290 289 287 286 286 286 285 285 285 284 284 283 282 282 281 281 281 281 281 281 282 282 282 283 282 282 282 282 282 283 283 283 284 283 282 283 284 284 284 284 284
292 290 288 286 286 285 285 285 284 284 284 283 282 282 281 281 280 280 280 280 280 281 281 282 282 282 282 281 281 281 282 282 283 283 284 284 283 283 283 284 284 284 284
290 288 286 286 286 285 285 284 284 284 284 282 282 282 281 280 279 280 280 280 281 281 282 282 282 282 281 280 280 281 281 282 283 283 283 284 284 284 284 284 284 284 284
289 287 286 287 286 286 285 285 284 284 283 282 281 280 280 279 279 280 280 280 281 281 282 282 282 281 280 280 281 282 283 283 284 284 284 285 285 285 284 284 284 284 284
287 287 287 287 287 286 285 285 284 283 281 280 279 279 278 278 278 279 279 279 280 281 281 281 281 280 280 280 281 282 283 284 284 285 285 286 285 284 284 284 284 284 285
287 287 287 287 287 286 285 285 283 282 281 280 279 278 277 277 278 278 279 279 280 280 280 281 280 280 280 280 281 282 283 284 285 286 286 286 285 285 284 284 284 284 285
288 287 287 287 287 286 284 284 282 281 280 279 278 277 277 277 277 278 279 279 279 280 280 280 279 279 279 278 279 281 282 283 284 285 285 285 285 286 285 285 284 284 284
287 287 288 287 286 285 283 282 281 281 279 278 277 277 277 277 277 278 279 279 279 279 280 279 279 278 278 278 278 279 280 281 282 284 285 285 286 286 286 286 286 286 286
287 287 287 287 285 283 283 282 280 279 278 278 277 277 277 277 277 277 278 279 280 279 279 278 278 278 278 278 278 278 279 280 281 282 284 285 285 285 286 286 286 286 286
287 287 286 285 284 283 282 280 279 278 278 277 277 276 277 277 277 277 277 278 278 278 278 278 278 278 278 278 278 278 278 279 279 281 282 283 284 284 285 285 285 285 285
285 286 285 284 283 282 281 280 279 278 278 277 276 276 276 277 277 277 277 277 277 277 277 278 278 278 278 278 278 278 279 279 279 279 280 281 282 282 283 283 284 284 284
285 285 285 283 283 282 280 280 279 278 277 277 276 275 275 275 275 276 276 276 277 277 277 277 277 278 278 278 277 277 278 278 278 278 279 279 280 281 281 282 282 282 282
285 285 284 283 283 281 280 279 278 277 277 276 275 275 275 275 275 275 275 275 276 276 275 275 276 276 276 276 276 276 276 277 278 278 278 278 278 279 280 280 280 281 281
284 283 283 282 282 281 280 279 278 277 277 276 275 274 274 274 275 275 275 274 273 273 273 273 274 275 275 275 276 276 276 276 276 277 278 277 278 278 278 279 279 279 279
282 282 281 281 281 281 280 279 278 277 276 276 275 274 274 274 274 274 274 273 272 272 273 273 273 274 274 274 275 275 275 275 275 275 276 277 277 277 278 278 278 278 278
282 282 282 281 281 281 280 280 279 278 277 276 275 274 275 275 275 275 274 272 272 272 273 273 273 273 273 274 274 274 274 274 274 274 275 275 275 276 277 277 277 277 277
282 282 281 281 281 281 281 280 279 278 277 276 275 274 274 273 274 275 275 275 273 272 273 273 273 273 273 274 274 274 274 274 274 274 274 274 274 274 274 275 275 276 276

GFSGL_850_thetae_009.txt.gz
Theta_e
305 305 303 300 298 297 296 297 297 297 297 294 294 294 295 296 294 292 291 290 290 290 289 289 288 288 287 287 288 289 289 289 289 290 290 290 290 290 291 291 292 292 292
304 302 300 298 297 296 296 295 296 295 292 293 293 294 295 294 293 292 291 290 290 289 288 287 286 286 286 286 287 288 288 289 289 289 289 290 290 290 291 291 291 292 292
300 298 297 297 296 296 294 294 294 293 293 294 294 294 294 293 292 291 290 289 288 287 286 286 286 286 286 287 287 287 287 287 287 287 287 288 288 288 289 289 289 290 290
298 297 297 297 295 295 294 293 293 294 294 294 294 292 291 292 292 291 289 288 287 286 286 286 286 286 285 285 284 285 285 285 285 286 286 286 287 287 287 288 288 288 288
296 297 296 296 295 295 293 293 292 291 291 291 290 290 290 289 288 287 287 286 286 285 285 285 284 284 283 283 283 284 285 285 285 285 285 286 286 286 286 287 287 288 288
296 296 295 294 292 291 290 290 290 289 288 288 288 288 287 286 286 285 285 285 285 284 284 283 283 282 283 283 284 283 283 283 284 284 285 285 285 285 285 285 286 286 286
294 294 292 291 291 290 289 289 287 286 286 286 286 286 285 285 285 284 284 283 283 282 282 282 282 282 282 282 282 282 283 282 282 282 283 284 284 285 285 285 285 285 286
293 292 292 292 290 289 287 286 286 285 285 285 285 284 284 284 283 283 282 282 281 281 281 282 282 282 282 282 282 282 282 283 283 283 283 283 283 284 284 284 284 285 285
292 292 292 290 288 286 286 285 285 285 285 284 284 283 283 282 282 281 281 280 281 280 281 281 281 281 282 282 282 282 282 283 283 282 282 283 283 283 283 283 283 284 284
292 292 291 288 286 286 286 285 285 285 284 284 284 283 282 281 281 280 279 280 280 280 281 281 281 282 282 282 282 282 282 282 282 283 283 284 283 284 284 283 283 284 285
291 291 290 287 286 286 286 286 285 285 284 284 283 282 281 280 280 279 279 279 280 280 281 281 282 282 282 281 281 281 281 280 281 281 282 283 284 284 283 283 283 284 285
291 290 288 287 286 287 287 286 285 285 284 283 282 281 280 279 279 279 279 279 279 280 281 282 282 281 281 281 280 281 281 282 282 283 283 283 283 284 284 284 284 284 284
291 290 287 287 287 287 287 286 285 284 283 281 281 280 279 278 278 278 279 279 279 280 281 281 281 281 280 280 281 281 282 283 283 283 283 284 284 285 284 284 284 284 284
290 289 287 287 287 287 286 285 284 282 281 280 280 279 278 278 278 278 278 278 279 280 280 280 280 280 280 280 280 281 282 282 283 284 284 285 285 285 284 284 284 284 284
289 288 288 287 287 287 286 284 283 282 281 279 278 278 277 277 277 277 278 278 279 279 279 280 280 280 279 279 278 280 281 282 283 284 285 285 285 285 284 284 284 284 284
289 288 287 287 287 286 284 283 282 281 280 278 278 277 276 276 276 277 278 278 278 279 279 279 279 279 279 278 277 278 280 281 283 284 284 285 285 285 285 285 284 284 285
287 287 287 287 286 285 283 283 282 281 279 278 277 277 276 275 276 277 278 278 278 279 278 278 278 278 278 277 278 278 279 280 281 283 284 284 285 285 285 285 285 285 285
287 286 286 286 285 284 283 282 280 279 278 278 277 276 276 277 277 277 277 278 278 278 277 277 278 278 278 278 278 278 279 279 280 281 282 283 284 285 285 285 285 285 285
284 285 285 285 284 283 283 281 280 279 278 277 277 276 276 276 276 276 277 277 277 277 277 277 277 277 277 277 278 278 278 279 279 280 280 281 282 283 284 284 284 285 285
283 285 285 284 284 283 282 281 280 278 277 277 276 275 275 276 276 276 276 276 276 276 276 277 277 277 277 276 276 277 278 278 279 279 279 280 281 281 282 282 283 283 284
283 284 284 284 283 282 281 281 280 278 277 277 275 275 275 275 275 274 275 275 275 274 274 275 275 276 276 276 276 276 276 277 278 278 278 279 279 280 280 281 281 282 282
283 283 283 283 282 281 281 280 280 278 277 276 275 275 275 275 274 274 274 273 272 272 272 272 273 274 275 275 275 275 275 275 276 278 278 278 279 279 279 279 280 280 280
283 282 282 281 281 281 281 280 280 279 277 276 275 275 275 275 274 274 273 272 272 272 272 272 272 273 273 274 274 275 275 275 275 275 276 277 278 278 278 278 279 279 279
282 282 282 281 281 281 281 281 280 279 278 277 276 275 275 276 275 275 274 272 272 272 272 272 272 272 273 273 273 274 274 274 274 275 275 275 276 277 277 278 278 278 278
282 282 281 281 281 281 281 281 281 280 279 278 276 275 274 274 275 275 275 275 274 272 272 272 272 272 273 273 273 273 273 274 274 274 274 274 274 274 275 276 276 277 277
281 281 281 281 281 281 282 282 281 280 279 278 277 275 274 274 273 273 273 274 274 273 272 272 272 272 272 273 273 273 273 273 273 274 274 274 274 274 274 274 274 275 275

GFSGL_850_thetae_012.txt.gz
Theta_e
304 303 302 300 298 297 297 297 297 297 296 297 296 296 295 295 295 294 293 294 293 293 292 292 291 290 290 290 290 291 291 291 291 291 291 292 292 292 292 292 292 293 293
302 301 300 298 297 297 297 297 297 297 296 296 295 295 294 294 294 293 292 292 291 291 291 290 290 289 289 289 290 290 290 290 290 290 290 291 291 291 292 292 292 292 292
301 299 299 298 298 297 297 296 296 295 295 295 294 293 293 292 292 292 292 291 291 290 290 289 289 289 289 288 288 288 288 288 288 289 289 289 290 290 290 291 291 291 292
299 299 298 297 297 296 295 294 294 294 294 293 293 292 291 290 289 289 289 289 289 289 288 288 288 288 287 287 287 287 287 287 287 287 288 288 289 289 289 289 290 290 290
299 298 297 295 295 294 293 292 292 291 290 289 289 289 288 288 288 286 287 287 288 287 287 287 287 286 285 284 284 285 285 286 287 287 288 288 288 288 289 289 289 290 290
297 296 295 294 293 292 291 290 289 288 288 288 288 288 288 287 286 285 284 285 285 286 286 286 286 285 285 284 283 283 283 285 286 286 286 287 287 288 288 288 288 288 288
296 295 294 294 292 291 290 288 288 288 288 288 287 287 287 286 285 284 283 283 284 285 285 285 284 284 284 284 284 284 283 283 283 283 284 285 285 286 286 286 287 287 287
295 294 294 292 291 290 288 288 288 287 287 287 287 286 285 285 284 283 282 282 284 284 284 284 284 284 284 283 283 283 283 284 284 284 284 284 284 284 285 285 286 286 286
295 294 293 291 290 288 288 288 287 287 287 286 286 285 285 284 283 282 281 281 282 283 282 282 283 283 283 283 282 283 283 284 284 284 284 283 283 283 283 284 285 285 285
294 293 292 291 289 288 288 288 287 287 286 286 285 284 283 283 281 280 279 280 280 281 282 282 282 282 282 282 282 282 282 283 283 283 284 284 285 284 284 283 284 285 285
293 292 291 290 288 288 288 288 287 286 286 285 283 282 282 282 280 280 279 279 280 280 281 282 283 283 283 282 282 281 281 281 281 281 282 283 284 285 285 286 285 285 285
294 293 291 290 288 288 288 288 287 286 285 284 283 283 282 281 281 280 279 279 279 280 280 282 283 282 281 281 281 280 281 282 282 282 283 283 284 285 285 286 285 285 285
292 291 290 289 288 288 288 287 287 286 284 283 283 282 282 281 281 279 279 279 279 279 281 281 281 280 280 280 279 280 281 281 282 282 283 284 285 285 285 285 285 285 285
292 290 290 289 289 288 287 287 286 284 283 282 282 281 281 280 279 278 278 279 279 279 280 280 280 280 279 280 279 280 280 281 282 282 282 283 285 285 285 285 285 285 285
289 289 289 288 288 287 287 285 284 283 281 280 280 279 279 278 278 277 277 278 278 278 279 279 279 279 279 280 279 279 280 280 280 281 282 283 284 285 286 285 285 286 286
287 288 288 287 287 286 285 285 284 282 280 279 278 277 276 276 276 276 277 278 278 279 278 278 278 278 278 279 279 278 279 279 280 281 282 282 283 284 285 285 285 285 286
287 286 287 287 286 285 284 284 283 283 281 279 278 276 275 275 275 276 278 278 278 278 278 277 277 278 277 277 277 277 278 278 278 279 280 282 284 284 285 286 286 286 286
285 285 285 285 284 284 283 282 282 281 281 280 278 276 275 275 276 277 277 277 277 277 277 277 277 277 277 276 276 276 277 277 278 278 279 280 283 282 284 284 285 285 286
284 284 285 285 284 283 282 282 281 281 280 280 279 277 275 275 275 275 276 275 275 276 276 276 276 276 275 275 275 275 276 277 277 278 278 279 281 281 282 282 283 284 285
284 284 284 284 283 282 282 281 281 280 280 279 278 276 275 275 275 274 274 273 273 273 274 274 274 274 274 274 274 275 276 276 276 277 277 278 279 279 281 281 281 282 282
284 283 283 283 283 282 281 281 280 280 279 279 278 276 276 274 274 274 273 273 272 272 272 272 273 273 274 274 274 274 275 275 275 276 277 277 278 279 279 280 280 281 281
283 283 283 283 282 282 281 280 280 279 279 278 278 276 275 274 274 273 273 273 272 272 272 272 272 273 274 274 274 274 273 274 274 275 275 277 277 278 279 279 279 280 280
283 282 283 283 282 282 281 281 280 279 279 278 277 277 275 275 274 274 274 274 272 272 272 272 272 272 273 273 273 274 274 274 275 274 275 275 276 277 278 278 278 279 278
282 282 282 283 282 281 281 281 281 280 279 278 277 277 276 275 274 275 275 275 275 273 272 272 272 272 272 273 273 273 273 274 274 274 274 274 274 275 276 276 277 277 277
282 282 282 282 282 282 282 281 281 280 279 278 278 277 276 275 274 274 275 275 276 275 273 272 272 272 272 272 273 273 273 273 273 274 274 274 274 274 274 275 275 276 276
282 282 282 282 282 282 282 282 282 281 280 279 278 277 276 275 274 274 274 274 274 274 273 273 273 273 272 272 272 273 273 273 273 273 273 273 273 273 274 274 274 275 275

GFSGL_850_thetae_015.txt.gz
Theta_e
306 304 303 302 301 299 299 299 298 298 297 297 297 297 296 295 295 294 295 295 294 294 293 293 293 293 292 291 291 292 293 292 292 292 292 292 293 293 293 293 294 294 294
303 302 301 300 300 299 299 297 297 296 297 297 295 295 294 294 294 293 293 293 293 293 293 293 292 292 291 291 291 291 291 291 291 291 291 292 292 292 292 293 293 293 293
301 300 299 299 299 298 297 295 295 295 295 295 295 294 293 293 292 291 291 291 291 291 291 291 290 290 290 290 290 290 290 290 290 290 290 290 290 290 291 291 292 292 292
299 299 299 299 297 296 296 295 294 293 292 291 291 290 290 290 290 290 290 289 289 289 289 289 289 289 289 289 289 289 288 288 288 288 288 289 289 290 290 290 290 291 291
299 299 298 297 296 295 295 293 292 291 290 290 290 289 289 289 289 288 287 286 286 287 287 288 288 288 288 287 286 286 286 286 287 287 288 289 289 290 290 290 290 291 291
298 297 297 296 295 295 293 292 290 290 289 289 289 289 289 288 288 287 286 285 284 285 286 287 287 287 287 286 285 285 284 284 285 286 287 287 288 288 288 289 289 290 290
297 297 296 296 295 293 292 290 290 289 289 289 289 289 288 287 287 286 285 284 283 284 286 286 286 286 286 286 286 286 285 284 284 284 284 285 285 286 287 287 287 288 288
298 297 296 295 294 293 292 290 290 289 289 289 288 288 287 287 286 285 284 283 283 284 284 285 285 285 285 285 284 284 284 284 285 285 284 285 285 286 286 286 286 286 287
297 296 295 295 294 292 291 290 289 289 289 288 288 287 286 286 284 284 282 281 282 282 282 283 283 283 283 283 283 283 284 284 284 285 284 284 284 284 284 284 284 285 286
297 295 294 294 293 292 290 290 289 289 288 288 287 286 284 284 284 282 281 281 280 281 281 282 282 283 283 283 283 283 283 283 283 283 284 284 284 284 284 284 284 284 284
296 295 295 294 293 291 290 290 289 289 288 287 286 285 284 284 283 282 281 280 280 280 281 281 282 284 283 283 283 282 282 281 281 281 282 283 284 284 285 285 286 285 285
296 295 294 293 292 290 290 289 289 288 288 286 285 284 284 283 283 282 281 279 279 280 280 281 282 282 282 282 281 281 280 281 282 282 283 284 285 285 285 286 286 286 286
293 292 293 292 291 290 290 289 288 287 286 285 284 284 283 282 282 281 280 279 279 279 280 280 281 281 281 281 280 280 280 282 282 283 283 284 285 285 286 286 286 286 286
292 292 291 291 290 289 289 288 287 286 285 284 283 282 281 281 280 279 278 278 278 279 279 280 280 280 280 281 281 281 281 281 282 282 283 284 284 285 286 287 286 286 286
290 289 289 290 289 289 288 287 286 285 284 282 281 279 279 278 278 277 277 277 277 278 279 280 279 279 279 280 280 280 280 281 281 281 282 283 284 285 286 287 286 286 287
288 289 289 289 288 287 287 286 285 284 283 282 281 280 278 276 276 276 276 277 278 278 279 278 278 278 278 279 279 279 279 280 280 281 282 282 283 285 286 286 286 286 287
286 286 286 287 286 286 286 285 284 284 283 282 281 280 278 277 275 275 275 277 277 278 277 277 277 277 277 278 278 278 278 279 279 280 280 281 282 283 285 286 286 287 287
285 285 286 286 286 285 284 284 283 283 283 283 281 280 278 277 275 275 275 277 277 277 277 276 276 276 276 277 277 277 278 278 279 279 280 280 281 282 283 284 285 285 286
284 285 285 285 285 284 283 283 283 283 283 282 281 281 278 277 277 276 275 275 275 275 275 275 275 275 275 275 276 276 277 278 278 278 279 279 280 281 282 282 283 284 285
286 285 284 284 284 284 284 283 283 282 282 282 281 280 277 276 277 276 276 275 274 274 274 274 274 274 274 274 275 275 277 277 277 277 278 279 280 280 281 281 282 282 283
285 285 284 283 284 283 283 283 282 282 282 281 281 279 278 276 276 276 275 275 274 273 273 273 274 274 274 274 274 274 275 275 276 276 276 278 279 279 280 280 281 281 281
283 284 284 284 284 283 283 283 282 282 281 281 280 280 278 277 276 276 275 274 274 273 273 273 273 273 273 273 273 273 273 274 274 274 275 277 278 278 279 280 280 280 280
283 283 284 284 284 283 283 283 282 282 281 280 280 279 279 278 276 276 275 274 274 274 273 273 273 273 273 273 273 273 273 273 274 274 274 275 276 276 278 279 279 278 279
283 283 283 283 283 283 283 283 282 282 281 281 280 280 279 278 277 276 275 275 275 274 274 273 273 273 273 273 273 273 273 273 273 273 274 274 275 275 276 277 278 278 278
283 283 283 283 284 283 283 283 283 282 282 281 280 280 279 278 277 276 275 275 274 274 275 274 274 273 273 273 273 273 273 273 273 273 274 274 274 274 275 275 275 277 276
283 283 283 283 283 283 283 282 283 282 282 281 280 280 278 278 277 276 275 275 274 274 274 273 273 273 273 273 273 273 273 273 273 273 273 273 273 273 274 274 274 275 275

GFSGL_850_thetae_018.txt.gz
Theta_e
305 304 303 301 300 300 300 300 299 297 295 295 296 295 295 294 293 292 293 292 292 292 292 292 293 293 293 293 292 292 292 293 293 293 293 292 292 293 294 294 294 294 294
304 303 301 300 300 300 299 297 296 295 296 295 294 294 293 293 293 292 291 291 291 291 291 291 291 291 291 291 290 290 291 291 291 291 291 291 291 291 291 291 292 292 293
302 300 300 299 299 299 297 296 296 295 294 293 292 291 290 290 290 290 290 290 290 290 288 289 289 289 289 289 289 289 289 289 289 289 289 289 289 290 290 290 290 291 291
301 300 299 299 298 298 296 295 295 294 292 291 290 290 290 290 290 289 289 289 288 287 286 286 288 288 288 288 289 289 289 289 288 288 288 287 288 288 289 290 290 290 290
300 299 298 298 297 297 296 295 294 292 290 290 290 290 289 289 289 288 288 287 287 286 286 285 286 286 287 287 287 287 287 286 285 286 286 287 287 288 289 290 290 290 291
300 300 299 298 297 296 295 294 293 291 290 290 289 289 289 289 288 288 287 287 286 285 285 284 285 286 286 287 287 286 286 285 285 285 285 284 285 286 287 287 287 288 288
301 300 299 298 297 296 295 293 292 291 290 289 289 289 288 288 287 287 286 286 284 283 282 283 284 284 285 285 285 285 286 285 285 285 284 284 284 284 285 285 286 286 287
298 298 298 297 296 296 295 293 291 290 290 289 289 288 288 287 286 285 284 283 282 281 281 281 282 282 283 283 283 283 283 283 283 284 284 285 285 285 285 285 285 286 285
297 297 297 297 295 295 294 293 290 290 289 289 289 288 288 286 284 284 284 283 282 281 280 281 281 281 281 282 283 283 283 283 283 283 284 285 284 284 284 284 284 284 284
296 296 296 296 295 294 294 291 290 290 289 289 288 288 286 285 284 284 283 282 281 281 280 280 281 281 282 283 283 283 283 283 283 282 283 283 283 283 283 284 284 284 284
294 295 294 293 293 293 291 290 290 290 289 288 288 286 284 283 283 283 282 281 280 279 279 280 280 281 282 281 281 282 282 282 281 281 282 283 284 284 284 284 284 284 285
293 292 292 292 293 292 291 290 290 289 288 287 286 284 283 283 282 281 281 280 279 279 279 279 280 280 281 281 281 281 281 281 281 282 283 284 284 285 286 286 286 286 286
291 291 291 291 291 291 290 289 288 288 287 286 284 283 282 281 280 280 279 278 278 278 278 279 280 281 280 280 281 281 281 282 282 283 283 283 284 285 285 286 286 286 286
290 290 290 290 290 290 289 288 288 287 286 285 283 282 281 280 278 278 277 277 277 278 279 280 280 280 279 280 281 281 281 281 282 282 282 283 284 285 285 286 287 286 286
289 289 289 290 289 289 288 288 287 286 285 284 283 282 280 279 278 277 277 277 277 278 279 279 279 278 279 279 279 280 280 280 280 281 282 283 283 284 285 286 286 286 286
288 287 287 287 287 287 287 286 285 284 284 283 283 282 281 279 278 276 276 276 277 278 278 278 278 278 278 278 278 278 279 279 279 280 281 281 282 283 285 286 287 286 287
287 286 285 286 286 286 285 285 284 284 283 283 283 282 281 279 277 277 276 276 277 277 277 277 277 277 277 277 277 278 278 279 279 280 280 281 281 283 284 284 285 286 287
286 285 285 286 285 285 285 284 283 283 283 283 283 282 280 280 278 277 276 276 276 276 276 276 276 276 276 276 276 277 278 278 278 279 279 280 281 282 282 283 284 284 285
286 286 285 285 285 285 284 284 283 283 283 282 282 281 281 280 278 277 277 276 275 275 275 275 275 275 275 275 275 276 277 277 277 277 279 279 280 281 281 281 282 282 283
286 286 285 284 284 284 284 283 283 283 282 282 282 281 280 279 278 277 276 276 275 274 274 274 274 274 274 274 275 275 275 276 276 276 278 279 279 280 280 281 281 281 282
286 285 284 284 284 284 283 283 283 282 282 282 282 281 280 279 278 277 276 276 275 274 273 273 274 274 274 274 274 274 274 274 275 275 277 278 278 278 279 280 280 280 280
284 283 283 284 284 284 283 283 282 283 282 282 282 281 280 279 278 277 276 276 275 275 274 273 273 273 273 273 274 274 273 273 274 274 275 276 276 277 278 278 279 279 279
283 283 283 283 283 284 284 283 283 283 283 282 281 281 280 279 279 278 277 276 275 276 276 274 273 273 273 273 273 273 273 273 273 273 274 275 275 275 277 277 278 278 278
283 283 283 283 284 284 284 283 283 283 283 282 282 281 280 280 279 278 277 276 276 275 276 276 274 274 273 273 273 273 273 273 273 273 273 274 274 274 275 275 277 277 277
284 284 283 283 284 284 284 284 283 283 283 282 282 281 281 280 279 278 277 276 276 275 275 274 274 274 274 274 274 273 273 273 273 273 273 273 273 273 273 274 274 275 275
284 284 284 283 283 284 284 284 283 282 282 282 282 281 281 280 279 278 278 277 276 275 274 275 274 274 274 274 273 273 273 273 273 273 273 273 273 273 273 273 273 274 274

GFSGL_850_thetae_021.txt.gz
Theta_e
305 305 304 303 299 299 299 299 299 299 294 295 294 293 292 291 290 290 290 290 290 291 291 291 290 290 291 291 291 291 291 291 291 291 291 290 291 291 291 291 292 292 294
303 304 303 301 299 299 299 299 298 297 294 294 293 292 291 290 290 290 290 289 289 290 290 290 288 287 288 289 289 289 289 289 289 289 289 290 290 290 290 290 290 290 291
303 303 301 300 299 299 298 298 297 296 294 294 292 290 290 290 289 289 289 289 289 288 288 287 287 286 285 287 287 288 288 289 289 289 289 288 289 289 289 289 289 289 290
301 302 301 301 299 298 298 297 296 295 294 292 290 290 289 289 289 289 289 288 288 287 287 286 286 285 285 285 286 287 287 287 287 287 287 286 286 287 287 287 288 289 290
301 301 301 300 300 298 297 298 296 294 293 290 290 290 289 289 289 288 288 288 287 286 286 285 284 283 285 285 286 286 287 287 286 286 285 285 285 284 285 287 287 288 289
297 296 297 299 299 298 297 296 295 293 291 290 290 289 289 289 288 288 288 286 285 284 283 282 281 282 283 284 284 284 285 286 286 286 285 285 285 284 284 284 285 285 286
296 295 297 296 296 296 296 296 294 292 290 290 289 289 289 288 288 287 286 284 284 284 282 281 280 280 281 281 282 283 283 283 284 284 284 284 284 283 284 284 284 284 285
294 294 295 294 295 294 294 295 293 292 290 290 289 289 289 288 287 285 284 284 283 283 282 281 280 280 281 281 281 282 282 283 283 283 283 283 283 283 284 284 284 285 285
294 294 294 293 292 292 293 294 293 289 290 290 289 288 287 286 284 284 283 283 282 281 281 280 279 280 280 281 282 282 282 283 283 283 283 284 283 284 284 284 284 284 284
294 293 293 291 291 292 292 290 290 290 289 289 288 288 286 284 283 283 282 281 281 280 279 279 279 280 281 281 281 281 281 282 282 282 282 282 282 282 283 282 282 283 283
294 293 291 290 291 292 292 291 290 290 289 288 288 286 284 283 282 281 280 280 279 279 278 279 279 279 280 281 281 281 281 281 280 281 281 282 283 284 284 285 285 284 284
293 291 290 290 290 291 291 290 289 288 288 288 287 285 283 281 280 279 278 278 278 277 278 279 280 280 280 280 281 281 282 281 281 282 282 283 283 284 284 285 285 286 286
291 290 289 289 289 290 290 289 288 288 287 287 285 284 282 281 280 279 278 277 277 278 279 279 279 279 279 280 280 281 281 282 281 282 282 283 283 284 285 285 286 286 286
290 289 288 289 289 289 289 288 287 287 287 285 284 283 282 281 279 278 277 277 277 278 278 279 278 278 279 279 279 280 280 280 280 281 282 282 283 284 285 286 287 286 286
290 289 287 287 287 287 287 286 287 286 285 284 283 283 281 281 279 278 277 277 277 278 278 278 278 278 278 278 278 279 279 279 280 280 281 281 282 283 285 286 286 286 286
290 288 286 285 285 286 286 285 285 284 283 283 283 282 281 281 279 278 277 277 277 277 277 277 276 276 276 276 277 278 278 278 279 280 280 281 282 283 284 285 285 286 287
288 288 286 285 285 285 285 284 283 283 283 283 283 282 281 281 280 278 277 276 276 276 276 276 276 276 275 276 276 277 277 277 278 279 280 280 281 282 282 283 284 284 286
288 286 286 285 284 284 284 284 283 283 283 282 282 282 281 281 280 278 277 276 276 275 275 275 275 275 275 275 275 276 276 277 277 278 279 280 280 281 281 282 282 283 283
287 286 286 285 284 284 284 283 283 283 282 282 282 282 281 281 280 278 277 276 276 275 274 274 274 274 274 274 275 275 275 276 276 277 278 279 279 280 280 281 281 281 282
286 286 285 285 284 283 283 283 283 283 282 282 282 281 281 280 279 278 277 276 276 276 274 273 274 274 273 274 274 274 274 274 275 276 277 278 279 279 279 279 280 280 280
286 285 285 284 284 284 283 283 283 282 282 282 282 281 281 280 279 279 278 277 276 276 276 274 273 273 273 273 273 273 273 273 273 275 276 277 277 278 278 279 278 279 279
284 284 284 283 283 283 283 283 283 282 283 282 282 281 281 280 280 279 278 277 276 276 277 275 274 273 273 273 273 273 273 273 273 273 275 275 275 277 277 278 278 277 278
284 283 282 283 283 283 283 283 283 283 283 282 282 282 281 281 280 279 279 278 277 276 276 276 275 274 274 274 273 273 273 273 273 273 273 274 274 275 275 276 277 277 277
285 284 283 283 283 283 283 283 284 283 283 282 282 282 282 281 280 279 278 278 277 276 276 275 274 274 274 274 273 273 273 273 273 273 273 273 273 273 274 275 276 276 276
285 285 285 284 283 283 283 283 283 283 283 282 282 282 281 281 280 280 279 278 278 277 276 275 275 274 274 274 273 273 273 273 273 273 273 273 273 273 273 273 273 274 274
285 285 285 284 283 283 283 283 283 283 282 282 281 281 281 281 280 280 279 279 278 277 276 275 275 275 276 276 275 274 273 273 273 273 273 273 273 273 273 273 273 273 273

GFSGL_850_thetae_024.txt.gz
Theta_e
303 302 302 302 302 301 300 299 299 299 298 297 294 293 293 292 290 290 289 289 289 289 289 290 290 289 289 288 286 287 289 289 290 289 289 289 290 290 290 290 290 290 291
302 301 301 302 301 301 300 300 298 298 298 297 296 293 292 290 290 289 289 288 288 288 288 288 287 287 287 286 285 285 286 288 288 288 289 289 288 288 288 288 289 289 289
300 300 301 300 300 300 300 299 298 297 295 295 293 293 290 290 289 289 288 288 288 288 288 287 286 286 286 285 285 285 285 286 287 287 287 287 288 288 287 287 287 288 288
300 299 299 297 296 299 299 298 297 297 297 293 292 291 290 289 289 288 288 288 288 287 287 285 284 283 282 283 284 285 285 286 286 287 287 286 286 286 286 285 285 286 287
298 297 296 295 295 294 295 295 294 294 295 293 290 290 289 289 289 288 288 288 287 286 284 284 283 282 281 281 283 284 284 284 285 286 286 286 285 285 285 285 284 284 287
297 295 294 294 293 293 293 292 292 294 295 290 290 289 289 289 288 288 288 287 285 284 283 283 282 281 281 280 281 281 282 283 283 284 284 285 285 285 285 284 284 284 284
295 294 294 294 293 293 291 291 293 293 291 290 289 289 289 288 288 287 285 284 283 283 282 282 281 280 280 280 280 281 281 281 282 282 283 283 283 283 284 283 283 284 284
294 294 294 293 293 291 291 291 293 292 290 289 289 289 288 287 286 284 283 283 282 282 281 280 280 279 279 279 280 281 282 282 282 282 283 283 283 283 283 283 283 284 284
294 294 294 293 291 290 291 290 290 289 289 289 289 288 287 286 284 282 282 281 280 280 279 279 279 279 279 280 280 281 281 281 281 281 282 283 283 284 283 283 284 284 284
294 293 293 291 290 291 291 291 291 290 289 289 288 287 286 284 282 281 280 279 278 278 278 279 279 279 280 280 280 281 281 281 281 281 281 281 282 282 282 282 282 282 282
293 292 290 290 289 290 290 290 289 289 288 287 287 286 284 283 281 280 280 278 277 277 278 279 279 280 280 280 280 281 281 281 281 281 281 282 282 283 283 283 284 284 284
292 291 290 289 289 289 289 289 288 288 287 287 286 284 283 282 281 280 279 277 277 278 278 279 279 279 279 279 280 280 281 281 281 282 282 282 283 283 284 284 285 285 285
291 290 290 289 288 289 289 289 288 287 286 286 285 284 283 282 280 279 278 277 278 278 278 278 278 278 278 279 279 280 280 280 281 281 281 282 283 283 284 285 285 285 286
291 290 290 288 287 287 287 287 286 286 285 284 284 283 282 281 280 279 278 277 277 278 277 278 278 278 278 278 278 279 279 279 280 280 281 281 282 283 284 285 286 286 286
291 290 289 287 285 285 286 285 285 285 284 283 283 282 282 281 280 279 278 277 277 277 277 277 277 277 277 277 278 278 278 278 279 280 280 281 282 283 284 285 285 286 285
289 289 288 286 285 285 285 284 284 284 283 283 283 282 282 281 280 278 278 277 276 276 276 276 276 276 275 276 276 277 277 277 278 279 280 280 281 282 283 284 284 285 286
289 288 287 286 285 285 284 283 283 283 283 282 282 282 281 281 280 279 278 277 277 275 274 275 275 275 275 275 275 276 276 276 277 278 279 280 281 281 282 282 283 284 285
287 287 286 286 284 283 283 283 283 282 282 282 282 281 281 281 280 279 278 277 278 276 274 274 274 274 274 274 274 275 275 276 276 278 278 279 280 280 281 281 281 282 283
287 286 286 286 285 284 283 283 283 282 282 282 282 281 281 281 280 279 278 277 277 277 275 273 273 273 273 273 274 274 273 273 275 277 278 278 279 279 279 280 280 281 281
287 286 286 285 284 284 283 283 283 282 282 282 282 282 281 281 280 280 279 278 277 276 277 275 274 273 273 273 273 273 273 273 274 276 277 277 278 278 278 278 279 279 279
287 287 284 284 284 284 283 283 283 282 282 282 282 282 282 281 280 280 279 278 277 276 276 277 275 274 273 273 273 273 273 273 273 274 275 275 276 277 277 277 278 278 278
287 286 284 282 282 282 282 283 283 283 282 282 282 282 281 281 281 280 279 279 278 277 276 275 276 275 274 274 274 274 274 274 273 273 273 274 274 275 276 276 277 277 277
287 285 284 283 282 282 282 283 283 283 283 282 282 282 282 281 281 280 279 279 278 277 276 275 275 275 274 274 274 274 274 274 274 274 273 273 273 274 274 275 275 276 276
287 286 285 284 284 283 283 283 283 283 284 283 283 282 282 281 281 280 280 279 278 278 277 276 275 275 275 274 274 273 273 274 274 273 273 273 273 273 273 273 274 274 274
286 286 285 285 284 284 283 282 283 283 283 283 283 282 281 281 281 281 280 279 279 278 278 277 276 275 275 276 276 275 274 274 274 274 273 273 273 273 273 273 273 273 273
286 286 286 285 285 285 284 283 282 282 282 282 282 282 281 281 280 280 280 279 279 279 278 278 277 276 276 276 276 276 275 275 275 275 274 273 273 273 273 273 273 273 273

GFSGL_850_thetae_027.txt.gz
Theta_e
302 301 300 301 301 300 300 299 300 299 299 298 296 294 293 292 292 290 289 288 288 287 288 288 288 287 287 286 286 286 286 285 285 286 288 288 288 288 288 288 288 289 289
301 300 300 300 299 297 296 297 298 298 297 296 296 296 294 290 290 290 289 288 288 288 288 288 287 287 286 285 284 284 284 285 284 285 286 287 288 288 287 287 288 288 287
300 299 299 297 296 294 293 292 292 293 295 294 293 295 291 290 290 289 289 288 288 288 287 287 286 285 284 283 282 282 283 284 285 285 286 286 286 286 286 286 286 286 286
298 297 297 295 294 294 293 293 293 292 293 294 294 294 290 290 289 289 288 288 288 287 286 285 284 283 283 282 281 281 282 283 284 284 285 286 286 286 286 286 285 285 285
297 295 295 294 294 293 293 293 291 291 293 293 293 291 290 289 289 288 288 288 287 285 284 283 283 282 282 281 280 280 281 281 282 282 283 284 285 286 286 285 285 284 284
295 294 294 293 293 293 293 291 291 291 292 292 291 289 289 289 288 288 287 285 284 283 283 282 282 281 280 280 279 280 280 281 281 281 282 282 283 284 284 285 284 284 284
294 294 293 294 293 293 291 290 291 292 291 290 289 289 289 288 287 286 284 283 282 281 281 280 280 279 279 279 279 280 280 281 281 282 282 282 282 282 283 283 283 283 283
294 294 293 293 292 291 290 290 290 290 289 289 289 288 288 287 286 284 282 281 280 280 279 279 279 279 279 279 279 280 280 281 281 281 281 282 282 282 282 282 282 283 283
294 293 293 292 291 290 290 291 290 290 290 289 289 288 287 286 284 282 280 280 281 280 279 279 279 279 279 280 280 281 281 281 281 281 280 281 281 283 283 283 283 283 283
293 293 292 290 290 289 289 290 290 290 289 289 288 287 285 284 282 281 280 280 280 279 279 279 279 279 280 280 280 280 281 281 281 281 281 281 281 281 281 282 283 282 282
293 292 290 290 290 289 289 289 289 289 289 287 287 286 284 283 282 280 280 280 278 278 278 278 279 279 279 279 279 280 280 281 281 281 281 282 282 282 282 282 282 282 282
292 291 290 290 289 288 288 289 288 288 287 287 285 284 283 282 281 281 280 279 278 278 278 278 277 278 278 278 279 279 279 280 281 281 281 282 282 283 283 284 284 284 284
291 291 290 290 289 287 287 288 287 287 286 285 284 283 282 282 281 280 279 279 278 278 277 277 277 278 278 278 278 278 279 279 280 280 280 281 282 282 283 284 284 285 285
291 290 290 289 288 286 285 286 286 285 285 284 283 283 282 281 281 281 279 278 278 277 277 277 277 277 277 277 278 278 278 278 279 279 280 281 282 283 284 285 286 285 286
289 289 289 288 287 285 285 285 284 284 284 283 283 282 282 281 281 280 278 278 277 277 275 275 277 277 276 276 276 277 277 278 278 279 280 280 282 282 283 284 285 285 285
288 288 288 288 286 285 285 284 284 283 283 283 282 282 282 281 281 280 279 277 277 277 275 275 275 275 275 275 275 276 276 277 277 278 279 280 281 281 282 283 284 285 285
288 287 287 286 286 285 284 283 283 282 282 282 282 282 282 281 280 280 279 278 277 277 275 274 274 274 274 274 274 275 275 275 276 278 279 279 280 281 281 282 283 283 284
288 287 286 286 285 285 283 283 282 282 282 282 282 281 281 281 280 280 279 278 277 277 277 275 274 274 273 274 274 273 273 274 275 277 278 278 279 279 280 280 281 281 282
287 286 286 285 285 285 284 283 282 282 282 282 282 281 281 281 280 280 279 279 278 276 277 277 274 274 274 273 273 273 273 273 274 276 277 277 278 278 279 279 279 279 280
288 287 286 285 285 284 284 283 283 282 282 282 281 282 281 281 281 280 280 279 278 277 276 276 276 275 274 274 274 274 274 274 273 274 275 276 276 277 278 278 278 278 278
287 287 286 284 283 282 282 282 283 283 283 282 282 282 282 281 281 281 280 279 279 278 277 276 275 276 275 275 274 274 274 274 274 273 273 274 274 275 276 277 277 277 277
287 287 287 284 283 282 282 282 282 282 282 283 282 282 281 281 281 281 280 279 279 278 278 276 275 275 275 274 274 274 274 274 274 274 273 273 273 274 274 275 275 276 276
287 287 286 285 284 284 283 282 282 282 283 282 282 282 282 282 281 281 280 280 279 279 278 277 276 275 275 275 275 275 274 274 274 274 274 273 273 273 273 273 274 274 274
286 286 286 286 285 285 284 283 283 282 282 283 283 283 282 282 281 281 281 280 280 279 279 278 277 276 276 276 276 276 276 275 274 274 274 273 273 273 273 273 273 273 273
286 286 286 286 285 285 285 285 284 283 282 282 282 282 282 282 281 281 281 280 280 280 279 279 278 277 277 276 276 276 276 276 275 275 275 274 273 273 273 273 273 273 273
286 286 286 286 286 286 286 286 285 285 283 282 282 282 282 282 282 282 281 280 280 280 280 279 278 278 277 277 277 276 276 276 275 275 275 274 273 273 273 273 273 273 273

GFSGL_850_thetae_030.txt.gz
Theta_e
302 302 300 300 300 299 295 294 293 292 292 292 294 295 295 295 294 292 290 289 288 288 288 288 287 287 287 287 286 285 284 283 283 284 285 285 285 286 287 288 288 287 286
301 300 299 298 296 294 293 293 293 293 292 291 294 295 295 293 292 290 289 289 288 288 288 287 287 287 286 284 283 283 282 282 282 283 283 284 284 285 288 287 287 286 286
299 298 297 295 294 293 293 293 293 292 290 290 293 294 293 293 291 289 289 288 288 288 288 287 286 285 284 283 283 282 282 281 281 282 283 283 284 285 286 286 286 286 286
298 296 294 294 293 293 293 293 292 290 290 291 291 292 292 292 290 289 288 288 288 288 286 285 284 283 283 282 282 281 281 280 280 280 281 282 283 284 285 285 286 286 285
295 294 294 294 293 293 293 291 290 290 291 291 291 291 291 289 289 288 288 288 287 285 284 283 282 282 281 281 280 280 280 280 280 280 281 281 282 282 284 285 285 285 285
294 294 294 293 293 292 291 290 290 290 290 290 290 289 289 289 288 288 287 286 285 283 281 280 280 280 279 279 279 279 279 280 280 280 281 281 281 281 282 282 283 284 284
294 294 293 293 292 291 290 290 290 290 290 289 289 289 288 288 287 286 285 284 282 281 281 280 279 279 279 279 279 280 280 280 280 280 281 281 281 282 282 282 282 283 283
293 293 293 292 291 290 290 289 290 290 289 289 289 288 288 287 286 285 283 282 281 281 280 279 279 279 279 279 280 281 280 280 281 281 280 281 281 281 282 282 282 282 282
293 292 292 291 290 290 290 289 289 290 290 290 289 288 287 286 285 283 282 281 281 281 280 279 279 279 279 279 280 280 280 280 281 281 281 281 280 281 281 282 282 283 282
292 291 291 291 290 290 289 288 289 289 289 289 288 287 286 285 283 282 281 280 280 280 280 279 279 278 278 279 279 279 279 280 280 281 281 281 281 281 281 281 281 282 283
291 290 290 290 290 290 289 288 289 289 288 288 287 286 285 283 282 281 281 280 280 279 278 278 278 277 277 278 278 278 279 279 280 280 281 281 282 282 282 282 282 281 281
290 289 290 290 290 289 288 288 288 288 287 287 286 285 283 282 282 281 280 279 279 279 278 277 277 276 277 278 278 278 278 279 279 280 280 281 281 282 282 283 283 283 283
289 289 290 289 289 288 287 286 286 286 286 285 285 283 283 282 281 281 281 279 279 279 277 276 276 277 277 277 277 278 278 278 278 279 280 280 281 282 283 283 284 284 284
289 288 288 288 288 288 286 285 285 285 284 284 283 283 282 282 281 281 281 279 278 279 278 276 275 277 276 276 276 277 277 277 278 279 279 280 281 282 283 284 285 285 285
289 288 288 288 288 287 286 285 284 284 283 283 283 282 282 282 281 281 280 279 278 279 278 276 276 276 276 276 276 276 276 276 278 278 279 280 281 282 282 283 284 285 285
288 288 287 287 288 287 285 284 284 283 282 282 282 282 282 282 281 281 280 279 278 278 279 277 276 275 275 275 275 275 274 275 277 278 278 279 280 281 281 282 283 283 284
288 288 287 287 286 286 285 284 283 282 282 282 282 282 282 281 281 280 280 279 279 277 278 278 276 275 275 274 274 274 274 274 275 277 278 278 279 279 280 281 281 282 283
288 287 287 287 286 285 285 285 283 282 282 282 282 282 282 281 281 280 280 280 279 278 277 278 277 276 275 275 274 274 274 274 274 276 277 277 278 278 279 279 279 280 281
288 287 288 287 286 285 285 284 284 283 282 282 282 281 281 281 281 281 280 280 279 279 277 277 277 277 276 275 274 274 274 274 274 274 275 275 276 277 278 278 278 278 278
287 287 287 287 286 285 284 284 284 283 283 283 282 282 281 281 281 281 280 280 280 279 278 277 276 276 276 276 275 275 275 275 274 274 274 274 274 275 276 277 277 277 277
287 286 287 288 286 285 283 283 282 282 282 283 283 283 282 281 281 281 281 281 280 280 279 278 277 276 276 275 275 275 274 275 275 274 274 273 274 274 274 275 275 276 276
286 286 286 287 287 286 284 283 282 282 282 282 282 282 282 282 281 281 281 281 280 280 280 279 278 277 276 276 276 276 275 274 274 274 274 274 273 273 273 273 274 274 274
285 285 286 286 286 286 285 284 283 283 282 282 282 282 282 282 282 282 281 281 281 280 280 280 279 278 278 277 276 277 276 276 275 274 275 274 273 273 273 273 273 273 273
286 285 285 286 286 285 285 285 285 284 284 284 283 282 282 282 282 282 282 281 281 280 280 280 279 279 278 277 277 277 276 276 276 275 276 275 275 273 273 273 273 273 273
287 286 285 286 286 287 286 286 286 286 286 285 284 283 282 282 282 282 282 281 281 281 280 280 279 279 278 278 277 277 276 276 276 275 275 275 274 274 274 273 273 273 273
286 286 286 286 286 286 286 286 286 286 286 286 286 285 283 282 282 282 282 282 281 281 280 280 280 279 279 278 278 277 276 276 275 275 275 274 273 273 273 273 273 273 273

GFSGL_850_thetae_033.txt.gz
Theta_e
303 301 300 299 298 296 295 294 293 292 292 292 291 291 293 294 295 294 293 290 289 289 288 288 288 287 287 286 286 285 284 284 284 284 284 284 285 285 286 286 287 288 288
301 300 298 297 296 294 293 293 293 293 291 290 290 290 293 293 294 292 292 289 289 289 288 288 287 286 286 285 284 284 283 283 283 283 283 284 284 285 285 286 287 287 287
299 298 297 296 294 293 293 293 292 291 290 290 290 291 292 291 292 291 290 289 288 288 288 287 286 285 284 284 283 283 283 282 282 282 282 282 283 283 284 285 286 286 286
297 296 295 294 294 293 293 292 290 290 290 290 291 291 291 291 290 289 289 288 288 287 286 285 284 283 282 282 282 282 282 282 281 281 281 282 282 283 283 284 285 286 286
296 294 294 294 293 293 292 290 290 290 290 290 290 290 289 289 289 288 288 287 286 285 284 283 282 281 281 280 280 281 281 281 280 281 281 282 282 282 283 283 284 284 285
294 293 294 293 293 292 290 290 290 290 290 290 289 289 289 288 288 288 287 286 284 283 282 282 281 281 280 280 280 280 280 280 281 281 281 282 282 282 283 283 283 283 284
293 293 293 293 292 291 290 290 290 289 290 290 289 289 288 288 288 287 286 284 283 282 282 281 280 279 279 279 279 280 280 280 280 280 281 281 281 282 282 282 283 283 283
292 293 293 291 291 290 290 290 289 289 290 290 290 289 288 288 287 286 284 283 282 281 281 280 279 279 278 278 279 280 280 280 280 281 281 281 281 281 281 282 282 282 283
292 291 291 290 290 290 290 290 289 289 289 289 289 288 288 287 286 285 283 282 282 281 281 279 278 278 278 278 279 279 279 280 280 280 280 281 281 281 281 281 281 282 283
290 290 290 290 290 290 290 289 288 288 289 289 289 288 287 286 285 283 282 282 281 280 279 279 278 278 277 278 278 278 278 279 279 279 280 280 281 282 282 282 281 282 283
290 289 289 289 290 290 289 289 288 287 288 288 288 287 286 285 284 283 282 281 280 279 278 278 277 278 277 277 277 277 278 278 278 278 279 280 281 281 282 282 282 282 282
289 289 289 289 289 289 289 288 287 286 287 286 286 285 285 284 283 282 282 281 279 279 278 278 276 276 278 277 276 277 278 278 278 278 279 279 280 281 281 282 283 283 283
289 289 289 288 288 288 288 288 287 285 286 285 285 284 283 283 283 282 281 281 280 278 278 278 276 276 276 276 276 276 277 277 278 278 278 279 281 281 282 283 284 284 284
289 289 289 288 287 288 287 287 286 285 285 284 284 283 283 283 282 282 281 281 280 279 278 278 276 276 275 276 276 276 275 276 277 278 279 280 281 282 282 283 284 285 285
289 289 288 288 287 287 287 287 286 285 284 283 283 282 283 282 282 282 281 280 279 279 278 279 278 276 276 276 275 275 274 275 277 278 278 279 280 281 281 282 283 283 284
289 288 288 287 287 287 286 286 285 284 283 283 282 282 282 282 282 281 281 280 280 279 278 278 278 277 276 275 275 275 275 274 275 277 278 278 279 279 280 280 282 282 283
288 288 287 287 287 287 286 285 285 284 284 282 282 282 282 282 282 281 281 280 280 279 279 277 278 278 277 275 275 275 275 274 274 275 277 277 278 278 278 278 279 280 280
288 288 288 287 287 288 286 285 285 284 284 283 282 282 282 281 281 281 281 280 280 280 279 278 277 277 277 277 276 275 275 275 274 274 274 275 276 277 278 278 277 279 279
287 287 287 286 286 287 287 285 285 285 284 283 283 282 282 281 281 281 281 281 280 280 280 279 278 277 277 276 276 276 276 275 275 274 274 274 274 275 276 277 277 277 277
287 287 286 286 286 286 287 286 285 283 283 283 282 282 282 282 282 281 281 281 281 280 280 280 279 279 277 277 276 275 275 275 275 274 274 274 274 274 274 275 275 275 276
287 286 286 286 285 286 287 286 285 284 283 282 282 282 282 283 282 282 281 281 281 281 280 280 279 279 278 277 277 276 276 275 275 274 274 274 274 273 273 274 274 274 274
287 287 286 285 285 286 286 286 286 285 284 283 283 282 282 282 282 282 282 282 282 281 281 280 280 279 279 278 277 277 277 277 276 275 274 274 274 273 273 273 273 273 274
287 288 287 286 285 285 286 286 286 285 285 284 284 283 283 282 282 282 282 282 282 282 281 280 280 280 279 279 278 277 277 277 277 276 275 275 275 274 273 273 273 273 274
287 287 287 286 286 285 286 286 286 286 285 285 285 285 284 284 283 282 282 282 282 282 281 281 280 280 279 279 278 278 277 277 277 276 276 275 275 274 274 273 273 273 273
285 285 285 285 285 285 285 285 286 286 286 286 286 286 286 285 285 284 282 282 282 282 281 281 280 280 279 279 279 278 277 277 276 276 276 275 274 274 273 273 273 273 273
284 284 284 284 284 284 284 284 285 285 285 285 286 286 286 286 286 285 283 282 282 282 282 281 280 280 280 279 279 278 277 277 276 276 275 275 274 273 273 273 273 273 273

GFSGL_850_thetae_036.txt.gz
Theta_e
303 302 300 299 299 297 296 296 295 295 294 293 294 294 294 295 295 294 294 294 293 292 292 291 290 290 289 288 288 288 287 287 287 286 286 286 286 286 286 287 287 288 288
301 300 299 298 297 297 296 295 295 294 293 294 294 294 294 294 294 293 292 292 291 291 291 290 289 289 288 288 287 287 286 286 285 285 285 285 285 285 285 285 286 287 288
300 299 298 298 297 296 295 294 294 293 293 294 293 293 293 292 292 291 291 291 290 289 289 288 288 287 287 286 286 285 285 284 284 284 284 284 284 284 284 285 285 286 287
299 298 298 297 294 295 294 294 293 292 292 293 292 292 291 291 291 290 289 289 289 288 287 286 286 285 284 284 283 284 283 283 283 283 283 283 283 284 284 284 285 285 286
297 297 296 294 294 295 294 293 292 291 292 292 292 291 291 290 289 289 288 288 288 286 285 284 284 283 282 281 281 282 282 282 282 282 283 283 283 284 284 284 284 284 285
297 296 294 293 293 294 293 292 292 293 292 292 292 291 290 289 288 288 287 287 286 285 284 283 283 282 282 281 280 280 280 281 282 282 283 283 283 284 283 284 284 285 285
295 293 293 293 293 293 292 292 292 292 292 292 291 291 290 289 288 288 287 286 284 284 283 283 282 282 282 281 280 280 281 281 281 281 282 282 283 283 283 283 283 284 284
292 293 293 293 292 292 292 292 292 291 291 291 290 290 289 288 288 287 286 284 284 283 283 282 282 282 281 279 279 280 281 281 281 281 281 281 282 282 282 283 283 283 284
293 293 293 293 292 292 292 292 291 291 291 291 290 289 288 288 287 286 285 284 284 283 282 282 281 280 280 278 278 279 280 281 281 280 280 280 280 281 282 282 283 283 284
291 292 292 292 292 292 291 291 290 290 290 289 290 288 287 287 286 285 284 283 282 283 282 282 281 279 278 278 278 278 279 280 279 280 280 281 282 283 282 282 283 283 284
290 291 291 291 291 291 291 290 290 289 289 289 288 287 286 286 285 284 283 282 282 282 282 281 281 278 277 278 277 277 277 277 278 279 280 281 282 282 282 283 283 283 284
290 291 290 291 290 290 290 290 290 289 288 288 287 286 286 285 284 283 283 282 282 281 280 280 279 277 277 276 277 276 276 277 278 279 279 280 281 281 282 283 283 283 284
289 289 291 291 290 290 290 289 289 289 288 287 287 286 286 285 284 284 283 282 282 281 280 279 279 278 277 277 276 276 276 277 277 278 278 279 279 281 282 283 284 285 285
289 290 291 290 290 289 289 289 288 288 287 286 286 285 285 284 284 283 283 282 281 280 280 279 279 279 278 277 277 277 276 275 276 277 278 278 279 280 281 282 283 284 285
289 290 290 290 290 289 289 288 288 287 286 286 285 284 284 284 284 283 282 282 281 280 280 279 279 279 278 278 278 277 277 276 276 276 277 278 278 279 280 281 282 283 284
289 289 290 290 289 289 289 288 287 286 285 285 284 283 282 283 282 282 282 282 281 281 280 280 280 279 278 278 277 277 277 276 275 275 276 277 277 278 279 280 281 282 283
289 289 289 288 288 288 288 287 287 287 286 285 284 283 282 282 282 282 282 281 281 281 280 280 280 279 278 278 277 277 277 276 276 275 275 276 276 277 278 279 280 280 281
289 289 288 287 287 287 287 287 287 286 286 286 285 284 283 282 282 282 282 281 280 280 280 280 280 279 278 278 277 277 276 276 276 276 275 275 275 275 277 278 278 278 279
289 289 288 287 287 287 286 286 286 286 285 285 285 284 284 283 282 282 281 281 282 281 281 281 280 279 279 278 277 277 276 276 276 276 275 275 274 274 276 277 277 277 278
289 289 288 287 287 286 286 286 286 286 286 285 285 284 284 284 283 282 282 282 282 281 281 281 281 280 279 278 277 277 277 276 275 275 275 275 274 274 275 275 276 277 278
290 290 289 287 287 286 285 285 286 286 286 285 285 284 283 283 283 283 283 283 282 281 281 281 281 280 279 278 277 277 277 277 276 276 275 275 275 274 274 275 275 276 276
290 289 288 288 287 287 286 286 285 286 286 285 285 284 284 283 283 282 282 283 282 282 282 282 281 280 279 279 278 277 277 277 277 277 276 276 276 275 274 274 274 274 275
290 289 288 286 287 287 286 286 285 285 286 286 285 285 285 285 284 284 284 283 283 282 282 282 282 281 280 280 279 279 278 277 277 277 276 276 275 274 275 274 274 274 274
289 288 286 285 285 286 286 285 285 285 285 285 286 286 286 286 286 285 285 285 284 283 282 282 282 281 281 280 280 279 279 278 278 277 277 276 275 275 274 274 274 274 274
287 286 285 285 285 285 285 285 285 285 285 285 285 285 285 285 285 285 285 285 285 283 282 282 282 281 281 280 280 279 279 278 278 277 277 276 275 275 274 274 273 274 273
286 285 285 285 285 285 285 285 285 285 284 284 284 284 285 285 285 285 285 284 285 284 282 282 282 282 281 280 280 279 279 278 278 277 276 276 275 274 274 273 273 273 273

GFSGL_850_thetae_039.txt.gz
Theta_e
308 305 303 304 302 301 300 299 298 297 296 295 295 295 295 295 296 294 295 295 294 294 293 293 292 292 291 291 290 289 289 289 288 288 288 287 287 287 287 286 286 287 287
306 308 304 302 301 300 299 298 297 296 295 295 295 295 295 294 294 294 293 292 292 292 292 291 290 290 290 289 288 288 288 287 287 287 286 286 286 286 285 285 286 286 286
308 304 302 301 300 299 298 297 297 296 295 295 295 295 294 293 293 292 292 292 291 291 290 290 289 288 288 287 287 286 286 286 286 285 285 285 285 285 285 285 285 285 286
304 302 301 300 300 298 297 297 296 295 295 295 294 294 293 293 292 292 291 291 290 289 289 288 287 286 286 285 284 284 284 284 284 284 284 284 284 284 285 285 285 285 285
302 300 300 299 298 297 297 296 295 295 295 294 294 293 293 292 291 290 289 289 288 288 288 287 286 285 284 283 282 282 282 282 282 283 283 283 284 284 285 284 285 284 285
300 300 298 297 297 296 296 295 294 294 294 294 294 293 292 291 290 289 288 288 287 287 287 286 285 285 284 283 283 282 281 281 282 282 283 283 283 283 284 284 284 284 285
299 298 297 297 296 295 294 294 294 294 294 293 293 292 292 291 290 289 288 287 286 286 286 285 285 284 284 283 282 281 281 281 282 282 282 283 283 283 283 283 283 284 284
298 296 296 296 295 294 294 294 294 294 293 293 293 292 291 291 290 289 287 286 286 286 286 285 284 284 283 282 280 280 281 281 282 282 282 281 281 281 281 282 283 283 283
296 295 295 294 294 294 294 294 294 293 292 292 292 291 291 291 289 288 287 286 285 285 285 284 284 283 282 280 278 279 280 280 281 281 280 280 280 281 282 282 282 283 284
295 294 294 293 293 293 293 293 293 292 292 291 291 290 290 289 288 287 286 285 284 284 284 284 283 283 282 278 277 278 279 280 279 279 280 281 282 282 283 283 283 284 284
294 294 293 293 293 292 292 292 292 292 291 290 289 289 289 288 287 286 285 284 283 283 283 283 283 282 280 278 277 277 278 276 278 279 280 281 282 282 282 283 283 283 284
293 293 293 292 292 292 292 292 292 292 291 290 289 288 287 286 286 285 284 284 283 282 282 282 282 280 280 278 278 277 277 278 279 279 280 281 281 281 281 282 283 284 285
291 290 292 292 292 292 292 291 291 290 290 290 289 288 287 287 287 286 285 284 283 283 281 281 281 280 280 280 279 279 278 279 278 279 279 280 280 280 281 282 283 284 285
290 291 292 292 292 292 291 291 291 289 289 289 288 287 287 286 286 286 285 284 283 282 282 282 281 281 281 280 280 280 279 279 278 278 279 279 280 280 281 281 282 283 285
291 291 291 291 292 292 291 291 290 289 288 288 287 287 286 286 285 285 284 284 283 282 282 281 281 282 281 281 281 280 280 279 279 277 278 278 279 279 280 280 281 282 284
289 290 291 291 291 291 290 289 289 288 288 287 286 286 285 284 283 283 283 283 282 282 282 281 282 282 281 281 281 280 280 279 278 277 277 278 278 278 279 280 281 281 282
289 289 289 289 289 288 288 288 288 288 288 287 286 286 285 284 283 283 282 282 282 281 281 281 282 282 281 281 281 280 280 279 278 278 277 278 277 277 278 280 280 280 281
290 290 290 291 290 289 288 288 287 288 288 288 287 286 285 285 284 283 282 282 282 282 281 282 282 282 281 281 281 280 279 278 278 277 277 277 277 277 278 278 279 279 279
290 291 291 290 289 289 288 287 287 287 287 287 286 286 285 285 284 284 283 282 282 283 283 282 283 282 282 281 281 279 278 277 277 277 277 277 277 277 277 277 278 278 279
292 292 291 290 290 289 288 288 287 287 287 287 287 286 286 285 285 284 284 283 283 283 283 282 282 282 282 281 280 279 278 278 278 278 277 276 276 276 277 277 277 277 278
291 291 291 290 290 289 289 288 287 287 286 287 287 286 286 285 285 284 284 284 284 284 283 283 282 282 282 280 279 279 278 278 277 277 276 276 276 276 276 277 277 277 277
290 291 291 290 289 289 288 288 288 287 287 286 286 286 286 286 285 285 284 284 284 284 284 283 283 282 282 281 280 280 279 278 277 277 276 276 276 276 276 276 277 276 277
290 289 289 289 288 287 286 286 286 287 287 286 286 286 286 286 286 286 285 285 285 285 284 283 283 282 282 281 281 280 279 278 278 277 278 277 276 276 276 276 276 276 276
289 288 288 287 287 287 286 286 286 286 286 286 286 286 286 286 286 286 286 286 285 286 285 284 284 283 282 282 281 281 280 279 279 278 278 277 277 275 275 275 276 276 275
288 288 287 287 286 286 285 285 285 285 286 286 286 285 285 285 285 286 286 286 286 285 285 285 284 283 282 282 281 281 280 280 279 278 278 277 277 276 275 275 275 275 275
286 287 287 286 286 285 285 285 285 285 285 285 285 285 285 284 284 284 285 285 285 285 285 285 284 283 282 282 281 281 280 280 279 279 278 277 276 276 275 274 274 274 275

GFSGL_850_thetae_045.txt.gz
Theta_e
318 318 316 314 311 308 307 305 301 301 300 298 296 295 294 295 295 294 293 291 291 292 291 291 291 291 290 290 289 289 289 288 287 287 286 285 285 285 285 284 284 284 284
318 316 313 311 308 307 305 301 300 300 299 297 296 294 294 295 295 294 292 291 291 291 291 290 290 289 289 289 288 287 286 286 285 283 283 283 283 283 282 283 283 283 283
316 313 311 308 306 304 301 302 300 299 298 297 296 293 294 294 295 294 291 292 292 291 290 289 289 288 288 287 286 286 285 284 283 283 282 281 281 282 282 282 282 282 283
313 311 309 305 303 302 301 299 299 298 298 296 293 293 294 295 294 294 292 292 291 291 290 288 286 287 287 286 286 285 284 284 283 282 281 281 281 282 281 282 282 282 282
311 309 305 303 303 301 300 300 299 298 296 294 293 294 294 295 294 294 292 292 291 291 289 287 286 287 286 286 285 284 284 283 283 281 280 281 281 281 282 282 281 280 281
309 305 303 302 300 300 300 298 297 296 295 294 294 294 294 293 294 293 291 292 291 290 289 286 286 286 286 285 284 284 283 282 280 279 281 280 281 281 281 280 280 280 281
306 303 301 300 300 298 297 295 295 295 294 294 294 294 293 293 293 293 291 290 290 289 288 286 286 286 285 285 284 284 282 281 278 280 280 280 281 280 280 280 280 281 282
303 301 300 298 297 296 295 294 294 294 294 294 294 294 292 292 292 291 290 291 290 289 288 286 285 286 284 284 284 283 282 280 279 279 280 280 279 279 280 281 282 283 283
300 299 297 295 295 295 294 294 293 293 293 293 293 293 292 292 292 290 290 289 289 288 286 285 284 284 284 284 283 282 281 280 279 278 278 279 280 280 281 281 281 281 282
298 296 295 295 294 293 293 293 292 293 292 292 293 292 292 292 291 290 288 289 288 287 286 285 284 284 283 283 282 281 280 280 280 280 279 279 279 280 280 280 280 281 282
296 296 297 295 293 293 292 292 291 292 292 291 292 292 291 291 290 289 288 287 286 286 285 284 283 283 283 282 281 281 280 280 280 279 279 278 279 279 279 280 280 281 281
299 300 297 293 293 291 291 292 292 292 292 292 291 291 291 289 289 288 287 287 287 286 285 284 283 283 282 281 281 281 280 280 280 279 279 279 278 278 278 279 280 280 281
297 294 293 292 290 291 292 292 292 292 292 292 291 291 290 289 288 288 287 287 287 286 285 285 283 283 282 281 281 281 281 280 280 279 279 279 278 278 278 278 279 280 281
294 292 291 290 290 291 291 290 291 292 292 291 291 290 290 289 288 287 287 286 286 285 285 285 283 283 283 282 282 281 281 281 280 280 279 279 278 278 278 278 280 280 280
291 290 290 290 289 289 290 290 290 291 291 291 290 289 288 288 288 287 286 287 286 286 284 284 283 283 283 282 282 282 281 281 280 280 279 279 278 278 278 278 279 279 279
290 290 289 289 289 290 290 290 290 290 290 289 288 288 287 288 288 288 286 286 285 284 283 283 283 282 282 282 282 282 281 281 281 280 280 279 278 277 277 278 277 278 278
291 291 290 290 289 290 290 291 290 290 290 290 289 288 287 287 287 287 287 286 285 284 283 282 282 282 281 282 282 282 281 281 281 280 280 279 278 277 277 277 277 277 278
291 291 290 290 290 291 291 291 291 291 291 289 289 289 288 287 287 287 287 286 285 284 283 283 282 282 282 282 282 282 281 281 281 280 280 279 278 277 277 277 277 277 277
291 291 291 291 291 292 292 291 291 291 291 290 288 289 288 288 287 287 287 286 285 285 284 283 283 282 283 283 282 282 282 281 281 280 279 279 278 277 277 277 277 277 277
290 290 290 290 290 290 290 290 290 290 288 289 288 289 287 286 287 287 287 287 286 285 285 285 284 283 282 283 282 282 282 282 282 280 279 279 278 278 277 277 276 276 276
283 284 284 285 285 286 287 288 289 289 287 288 287 287 286 286 286 287 286 286 287 286 286 285 285 284 284 283 283 282 282 282 282 281 280 279 278 278 277 277 276 276 276
283 284 284 283 283 283 284 285 286 288 287 287 286 286 286 286 286 286 286 286 286 287 286 285 285 285 285 285 284 283 283 282 281 281 280 279 279 278 278 277 276 276 276
280 280 282 283 283 283 285 285 287 288 287 286 286 286 286 286 285 286 286 286 287 287 286 286 286 285 285 285 284 284 283 283 282 281 280 280 279 278 278 277 277 276 276
280 280 281 282 283 284 285 285 286 287 286 285 285 285 285 285 285 286 286 285 285 285 285 285 285 286 286 285 285 285 284 283 282 281 281 280 279 278 278 278 277 276 276
278 278 279 280 280 280 281 282 282 282 283 283 282 282 282 282 283 283 284 284 285 285 284 284 284 285 285 285 285 285 284 283 282 281 281 280 279 278 278 277 276 275 275
276 276 276 276 277 277 277 278 278 279 278 279 279 280 279 280 280 281 281 282 283 284 285 284 284 285 285 285 285 285 284 283 282 281 281 280 279 279 278 277 276 276 275

GFSGL_850_thetae_048.txt.gz
Theta_e
323 318 318 318 316 313 309 307 306 305 306 304 300 299 296 293 292 292 294 294 292 291 291 290 291 290 290 290 289 289 288 287 286 286 285 284 283 282 282 282 282 282 283
320 319 318 316 313 309 307 308 306 305 305 299 299 298 296 293 292 293 294 294 293 291 291 291 290 290 289 289 288 287 286 286 285 284 283 283 282 281 282 282 282 282 282
319 318 316 314 310 310 310 304 303 304 299 298 298 297 294 292 293 294 294 294 293 291 292 291 290 289 287 287 287 286 286 285 284 283 283 282 280 281 281 281 281 282 282
318 316 315 313 312 307 303 302 302 298 299 298 297 294 293 293 294 295 294 294 292 292 292 291 290 289 286 286 286 286 285 284 284 283 282 280 280 281 281 281 281 281 280
317 314 312 310 305 304 303 300 299 298 297 296 294 294 293 294 294 294 293 293 292 291 291 290 289 288 286 286 286 285 284 284 283 282 281 279 280 280 280 281 280 280 281
315 312 307 304 303 302 300 300 299 297 295 295 294 293 294 294 294 293 293 293 291 290 290 290 289 287 286 286 286 285 284 284 282 281 279 278 280 280 280 280 280 280 281
308 306 304 303 301 301 299 297 295 295 295 293 293 294 294 294 293 292 292 292 291 290 290 290 289 287 285 285 285 284 284 283 282 280 278 279 279 279 279 280 280 281 282
306 301 300 299 298 296 296 297 299 296 293 293 293 293 293 293 293 292 292 291 290 290 289 289 287 285 285 285 284 284 283 282 280 279 278 278 278 279 279 280 281 281 281
301 299 298 297 296 299 300 299 294 293 293 293 292 292 292 292 292 292 291 290 289 288 289 288 286 285 284 284 284 283 282 281 280 280 279 278 278 279 280 280 280 280 280
298 297 296 299 301 299 295 293 293 293 292 291 291 291 291 291 291 291 290 290 288 287 287 287 285 284 284 283 283 282 281 281 280 280 280 279 278 278 278 279 279 279 280
296 297 300 299 296 294 293 293 292 291 292 292 292 291 291 291 291 291 289 289 288 287 286 286 286 284 283 283 282 282 281 281 280 280 280 279 279 279 278 278 279 279 280
301 299 298 295 293 293 292 290 291 291 291 292 292 291 291 291 291 290 289 288 287 287 287 286 286 285 284 283 282 281 281 281 280 280 280 279 279 279 279 278 278 279 280
296 294 293 292 292 290 290 290 290 291 291 291 291 291 291 290 290 289 288 288 287 287 286 286 285 284 284 283 283 282 281 281 280 280 280 279 279 278 278 278 279 280 280
293 292 292 290 289 289 289 289 289 290 289 289 290 290 290 289 289 288 288 288 287 287 286 286 285 284 284 283 283 282 282 281 281 280 280 280 279 278 278 278 278 279 279
290 290 290 289 289 289 289 289 289 289 290 290 289 289 289 289 288 287 287 287 288 287 286 286 285 284 284 283 283 282 282 281 281 280 280 280 279 279 278 278 277 277 278
291 291 291 291 291 291 290 290 289 290 290 290 290 290 289 289 288 287 287 287 287 286 285 285 284 283 283 283 282 282 281 282 281 280 280 280 279 278 278 278 277 277 277
291 291 291 290 290 290 291 291 291 291 291 291 291 291 290 289 289 287 287 287 286 287 286 285 284 283 283 282 281 281 282 282 281 281 281 280 280 279 278 277 277 277 277
290 291 291 291 291 291 291 291 290 290 290 290 290 290 290 289 288 288 287 287 287 287 286 286 285 284 284 282 282 281 282 281 281 281 281 280 279 279 278 277 277 277 277
287 287 286 285 285 286 286 286 286 286 287 288 288 289 289 288 288 288 286 287 287 287 287 286 285 285 284 283 282 282 282 282 282 282 281 281 279 279 278 277 277 277 277
282 281 281 281 281 282 282 282 282 283 285 287 287 289 287 287 286 286 287 286 287 287 286 287 286 285 285 284 283 282 283 282 282 282 282 281 280 279 278 277 277 277 277
280 280 279 279 280 282 283 283 283 283 284 285 285 287 287 286 286 285 285 286 287 286 286 287 286 286 285 285 284 283 282 282 282 282 282 281 280 279 278 278 277 277 277
278 279 279 280 280 281 282 282 283 283 283 284 286 286 286 285 285 285 285 286 286 286 286 286 287 286 285 285 285 284 284 283 283 282 282 281 280 279 278 278 277 277 277
278 278 278 278 278 279 280 280 280 281 282 284 284 285 285 285 285 285 285 285 286 286 286 286 286 286 286 285 285 285 284 284 284 283 282 281 280 279 278 278 277 277 277
277 277 277 277 277 277 277 277 277 278 279 280 280 280 281 283 283 283 284 284 284 285 285 285 285 285 285 285 285 285 285 285 284 283 282 281 281 280 279 278 277 277 276
275 276 276 275 275 275 275 275 275 276 276 276 277 277 278 279 279 279 281 281 282 284 284 284 285 284 284 284 285 285 285 285 284 284 283 281 281 280 279 278 277 277 276
274 274 274 274 274 274 274 273 273 274 274 274 275 275 275 276 277 277 278 280 280 281 281 283 284 284 284 284 284 285 285 285 284 284 282 281 281 280 279 278 277 277 276

GFSGL_850_thetae_051.txt.gz
Theta_e
325 324 324 322 320 318 316 314 313 310 307 308 306 301 299 297 296 292 292 292 293 293 294 291 291 291 290 290 289 289 288 287 286 286 285 284 283 282 282 282 282 282 282
324 325 324 321 318 316 313 311 310 307 308 304 302 299 298 297 294 292 292 293 294 294 294 292 291 291 290 289 289 287 286 286 286 285 284 283 282 282 281 282 282 281 281
324 324 322 317 317 314 313 309 307 307 303 304 299 298 297 294 293 292 292 293 294 294 293 292 292 291 290 290 287 286 286 286 285 284 284 283 282 281 281 281 281 281 281
324 322 318 317 315 311 307 309 305 302 300 298 297 296 295 294 293 293 293 293 293 293 293 291 292 291 290 289 287 286 286 285 284 284 283 282 281 281 280 280 280 279 279
320 319 316 313 311 310 309 303 302 298 300 297 295 296 295 294 294 293 293 293 292 293 292 290 290 290 290 288 287 285 285 285 284 283 282 281 281 279 279 279 279 279 281
318 316 312 311 309 305 302 301 299 298 296 297 300 297 294 294 294 294 293 292 292 292 291 290 290 290 289 288 286 285 285 284 283 283 282 281 280 279 278 279 279 280 280
316 312 310 307 304 301 300 299 296 297 300 299 297 294 294 293 293 293 293 292 292 291 291 290 290 289 289 286 285 285 285 284 283 282 281 280 279 279 278 278 279 280 280
311 308 306 303 300 297 297 298 300 299 296 294 294 293 293 292 292 292 292 291 291 290 290 289 287 288 287 286 285 284 284 283 282 281 280 280 280 279 279 279 279 279 279
306 303 300 298 298 298 300 300 300 294 294 293 293 291 290 290 291 291 291 291 291 289 289 288 287 287 286 284 284 284 283 283 282 281 280 280 279 279 278 278 278 278 279
298 297 297 298 299 300 300 296 294 293 293 292 291 291 291 290 290 291 291 291 290 290 288 288 287 286 285 284 283 283 282 282 281 281 280 280 280 279 279 278 278 278 278
297 298 299 300 299 297 294 293 293 292 290 290 290 290 290 291 291 291 291 290 290 289 288 287 287 286 286 285 284 283 282 281 281 281 280 280 280 279 279 278 278 278 278
300 299 298 296 294 293 292 292 290 290 290 290 290 289 289 290 291 291 290 290 289 288 288 287 286 286 286 285 284 283 282 282 281 281 280 280 280 279 279 278 278 278 279
296 295 293 292 291 290 289 289 289 289 289 289 289 289 289 289 289 289 289 289 288 288 287 287 287 286 286 285 284 283 283 282 281 281 281 280 280 280 279 278 278 278 278
292 290 290 289 289 289 289 289 289 289 289 289 289 289 290 289 289 289 289 288 287 287 287 287 287 286 286 285 284 284 283 283 282 281 281 280 280 280 279 278 278 278 278
290 290 290 290 290 290 290 290 290 290 290 290 290 290 290 290 290 290 289 288 287 287 287 287 287 285 286 285 284 284 283 282 282 281 281 280 280 280 280 278 278 278 277
290 290 290 290 290 290 290 289 290 290 290 290 290 291 291 291 291 290 290 289 287 287 286 286 286 286 285 285 284 283 283 282 281 281 281 280 280 280 280 278 278 277 277
289 290 290 289 289 288 287 285 285 284 284 285 286 286 287 287 289 289 290 289 288 287 287 286 286 286 285 285 284 283 282 281 281 281 281 281 280 280 279 278 278 278 278
286 284 283 282 282 281 281 280 280 280 281 281 281 282 285 286 287 288 289 288 288 287 287 286 286 286 286 285 284 283 282 281 281 281 281 281 280 280 279 278 278 278 277
282 281 281 281 280 280 280 280 281 282 282 282 282 282 283 283 286 287 287 287 287 286 286 286 287 286 286 286 285 284 282 282 281 281 281 281 280 280 279 278 278 277 277
281 280 280 279 279 279 279 280 281 282 280 280 282 283 283 284 285 287 286 286 285 286 286 286 287 286 286 286 285 284 283 282 282 282 282 281 281 280 280 278 278 278 277
279 279 278 278 278 278 278 279 279 279 280 279 280 282 283 284 285 286 286 285 285 285 286 286 286 286 286 286 286 285 284 283 282 282 282 282 281 281 279 279 278 278 277
278 277 277 277 277 277 277 277 277 277 277 278 279 280 280 281 281 283 285 285 285 285 285 285 286 286 286 286 286 285 285 284 284 283 282 282 281 281 279 279 278 278 277
277 276 276 276 276 276 276 276 276 275 275 276 276 277 278 278 279 279 281 283 284 284 284 285 285 285 285 286 286 285 285 285 284 284 284 283 281 281 280 279 278 278 277
276 275 275 275 275 275 275 275 275 274 274 274 274 275 276 276 276 277 278 279 280 281 282 283 284 284 284 284 285 285 285 285 285 285 284 283 282 281 280 279 278 278 277
275 274 274 274 274 274 274 274 273 273 273 273 273 273 274 274 275 275 276 277 278 279 280 281 282 283 284 284 284 284 284 285 285 285 284 284 282 281 280 279 278 278 277
274 273 273 273 273 273 272 272 272 272 272 272 271 271 271 272 273 274 275 276 277 278 278 280 281 282 283 284 284 284 284 284 285 285 284 283 282 281 280 279 278 278 277

GFSGL_850_thetae_054.txt.gz
Theta_e
327 327 326 323 322 322 320 317 315 316 314 310 308 310 307 302 301 297 293 293 293 293 294 293 293 291 291 291 290 289 289 287 286 286 285 285 284 283 282 282 281 281 282
328 327 325 323 323 323 321 320 318 315 312 311 310 307 304 299 296 294 294 292 293 294 294 293 293 291 291 291 290 290 289 286 286 286 285 284 283 283 282 281 281 281 281
324 324 324 323 323 323 321 318 314 312 310 307 305 303 298 297 294 295 293 294 293 293 293 293 292 290 291 291 290 290 287 286 285 285 285 284 283 282 281 281 281 281 280
324 324 323 323 323 319 314 312 309 307 306 304 300 298 295 296 296 294 294 293 293 293 292 292 291 290 290 290 290 289 287 286 285 285 284 283 283 281 281 280 281 280 280
324 324 323 321 317 312 309 307 306 305 301 298 297 299 298 296 295 294 294 293 293 292 291 291 291 290 290 289 289 288 287 286 285 285 284 283 282 281 280 280 279 280 280
322 321 320 315 310 308 307 306 304 299 298 297 300 298 299 295 294 294 293 293 293 292 291 291 291 290 289 289 288 288 286 285 285 284 283 283 282 280 280 279 279 279 279
318 316 312 309 307 306 303 300 298 297 299 300 300 298 295 294 294 293 292 292 292 291 291 291 289 289 288 287 287 287 285 285 284 284 283 282 280 280 279 279 279 278 279
314 311 309 306 302 299 297 297 297 299 300 300 296 294 293 293 291 290 291 291 291 291 291 290 289 289 288 287 287 286 284 284 284 283 283 281 280 280 279 279 279 279 279
309 306 301 299 297 298 299 299 300 300 297 294 293 293 292 291 290 290 290 290 290 291 291 290 289 288 288 287 286 285 284 283 283 283 282 280 280 280 279 279 279 279 279
301 299 298 299 299 300 300 299 297 294 293 292 292 291 290 290 290 290 290 291 291 290 290 290 289 288 287 287 286 285 284 284 282 282 281 280 280 280 279 279 279 278 278
298 298 299 300 300 298 295 293 293 292 291 290 290 290 290 289 289 290 290 291 291 290 290 290 289 288 287 286 286 286 285 283 282 281 281 281 280 280 280 279 279 278 278
302 299 296 294 293 292 291 290 290 289 289 289 289 289 289 289 289 289 289 290 290 290 289 289 288 287 287 286 286 285 285 283 282 282 281 281 280 280 280 279 279 279 278
294 293 291 290 290 289 289 289 289 289 289 289 290 289 289 289 289 289 289 289 289 289 288 288 287 287 287 286 286 286 285 284 282 282 282 281 281 280 280 280 279 279 279
291 290 290 290 290 290 290 290 290 290 290 290 290 290 290 290 290 290 290 290 289 289 288 288 287 287 287 287 286 286 285 284 283 282 282 282 281 280 280 280 279 279 279
290 290 290 289 289 289 289 289 288 287 286 285 284 284 284 285 286 287 288 289 290 290 289 287 287 286 286 286 286 285 285 284 283 283 282 281 281 280 280 280 279 279 279
289 289 288 287 286 284 284 283 283 282 282 281 281 281 281 282 282 283 285 286 287 288 288 288 287 287 286 286 286 286 285 285 283 282 282 281 281 280 280 280 279 278 278
286 285 284 283 283 282 282 281 281 282 281 281 281 281 282 282 283 282 282 284 286 287 288 288 287 287 287 286 286 286 285 284 283 282 281 281 281 280 280 280 279 278 279
283 283 282 281 281 280 280 280 279 279 280 280 281 281 281 282 283 283 283 284 285 286 287 288 287 287 287 286 286 286 285 284 283 282 281 281 281 280 280 280 279 278 278
282 281 281 280 280 279 278 278 278 278 278 279 279 280 280 280 282 284 284 284 286 286 286 286 285 285 285 286 286 286 286 285 283 282 281 281 281 280 280 280 279 278 278
280 280 279 279 278 278 277 277 277 277 277 277 277 277 278 279 280 280 283 284 284 285 285 285 285 285 285 286 286 286 285 285 284 282 282 281 281 281 280 280 279 278 278
279 278 278 278 277 277 276 276 276 276 276 276 275 275 276 276 278 279 279 279 281 282 283 283 284 285 285 285 285 286 285 285 284 283 282 282 282 281 281 280 279 278 278
278 277 277 277 276 276 275 275 275 275 275 275 275 275 275 275 276 276 277 278 279 278 280 282 283 284 284 284 285 285 285 285 285 284 282 282 282 281 281 280 279 278 278
277 277 276 276 275 275 275 274 274 274 274 274 274 274 274 274 274 274 275 276 277 278 278 280 282 283 284 284 285 284 284 285 285 285 284 283 282 282 281 281 279 278 278
276 276 275 275 274 274 274 274 273 273 273 273 273 272 272 272 273 273 273 274 275 276 277 278 279 280 282 283 284 284 284 284 285 285 285 284 284 283 281 281 280 279 278
275 274 274 274 274 273 273 273 273 272 272 272 272 271 271 271 272 272 272 273 274 275 276 277 278 279 281 282 283 283 283 284 284 284 284 284 284 283 282 281 280 279 278
274 273 273 273 273 272 272 272 272 271 271 271 270 270 270 270 270 271 271 272 273 274 275 276 277 278 279 281 282 283 284 284 284 284 284 284 284 283 282 281 280 279 278

GFSGL_850_thetae_057.txt.gz
Theta_e
325 325 324 324 324 325 325 322 321 319 315 313 311 306 304 307 304 302 298 299 294 293 293 294 293 293 292 291 291 291 290 289 290 289 287 286 285 284 284 283 282 282 282
325 325 325 325 325 324 322 321 321 319 316 312 311 306 307 306 303 302 300 296 294 293 293 293 293 293 292 291 291 291 290 289 289 288 287 286 284 284 283 282 282 282 281
325 326 324 323 323 322 322 322 321 315 316 311 306 307 305 302 301 299 297 294 293 293 293 293 292 292 292 290 290 290 289 289 288 286 286 286 284 284 283 282 281 281 281
326 325 325 324 323 322 320 320 317 314 311 306 306 304 303 302 300 297 294 294 294 293 293 293 292 292 291 291 290 289 289 289 287 286 286 285 284 284 282 281 281 281 281
326 324 323 320 320 318 317 316 312 309 306 305 305 302 301 301 300 296 295 294 294 293 293 292 292 291 291 290 290 289 288 288 287 286 286 285 284 284 283 281 281 281 281
322 320 319 318 317 314 311 307 306 305 303 301 300 300 300 300 298 294 294 294 293 293 292 292 291 291 290 289 289 288 288 287 287 286 286 285 284 283 281 280 281 281 281
317 317 315 313 309 307 305 304 303 300 298 298 299 300 298 298 294 294 293 293 292 292 292 292 291 291 290 289 289 288 287 287 287 285 284 284 283 282 280 280 281 281 281
314 311 308 306 306 304 301 299 297 298 299 300 299 298 294 294 293 292 291 290 290 290 290 291 291 291 290 289 289 288 287 287 285 284 284 283 283 282 280 280 280 280 280
309 308 305 302 300 298 298 299 300 299 299 298 294 293 293 292 292 290 291 291 291 290 290 290 290 291 290 289 289 288 287 286 285 284 283 283 282 281 280 280 280 281 280
303 301 299 299 299 301 300 300 297 294 293 293 292 291 290 290 290 290 290 290 291 291 290 290 291 290 290 289 288 288 287 286 286 285 283 282 282 281 280 280 280 280 280
300 300 300 302 300 298 294 293 292 291 290 290 289 289 289 288 288 289 289 289 289 289 290 290 290 290 290 289 287 287 287 286 286 285 283 282 282 281 281 280 280 279 279
301 302 299 295 294 292 291 290 289 289 289 289 289 289 289 289 289 289 289 289 290 289 289 289 289 289 289 289 287 287 286 286 285 285 284 282 282 281 281 281 280 280 279
296 294 292 291 290 290 290 289 289 289 289 289 288 286 285 284 284 283 283 284 287 289 290 290 289 288 288 288 288 287 287 286 286 285 284 283 282 282 281 281 280 280 280
291 291 290 290 289 289 289 287 286 284 283 282 282 283 283 282 283 283 283 283 284 285 285 287 288 288 288 288 288 287 287 287 286 285 284 283 282 282 282 281 280 280 279
290 289 289 288 286 285 284 284 283 282 281 281 281 281 281 281 282 281 282 282 283 282 284 285 286 287 287 287 287 286 286 286 286 285 284 284 283 282 281 281 280 279 278
288 287 286 285 284 283 283 283 282 281 281 280 280 280 280 280 280 281 281 282 283 283 283 284 286 286 286 287 287 286 286 286 286 285 284 284 283 282 281 280 280 279 279
285 284 283 283 282 282 281 281 280 280 279 279 278 278 278 278 279 280 280 283 284 283 284 284 285 286 287 287 287 286 286 286 286 285 284 283 282 282 281 281 280 279 278
283 282 282 281 281 280 280 279 279 278 278 278 277 277 277 277 277 278 280 281 283 283 284 285 286 287 287 286 286 285 286 286 286 285 284 283 282 281 281 280 280 279 278
282 281 280 280 279 279 278 278 278 277 277 277 277 277 277 277 277 277 278 279 279 280 282 283 284 284 285 284 284 284 285 285 285 285 284 283 282 281 281 280 280 280 279
280 280 279 279 278 278 278 277 277 277 276 276 276 276 276 276 276 276 276 277 278 279 279 280 281 283 283 284 285 285 285 285 285 285 284 283 282 281 281 281 280 280 278
279 279 278 278 277 277 277 276 276 276 275 275 275 275 274 274 275 274 275 275 276 277 277 279 279 280 282 283 283 284 284 284 285 284 284 283 282 281 281 281 280 280 279
278 278 277 277 276 276 276 275 275 275 274 274 274 274 274 274 274 274 274 274 274 275 276 276 278 279 279 281 282 283 283 283 283 284 284 284 282 282 282 281 281 280 279
277 277 276 276 275 275 275 274 274 274 273 273 273 273 273 273 273 273 273 273 273 274 275 275 276 278 278 279 281 282 283 283 282 283 284 284 283 282 282 281 281 280 279
276 275 275 275 274 274 274 273 273 273 272 272 272 272 271 271 271 271 272 272 272 273 273 274 275 276 277 278 280 281 282 283 283 282 283 284 284 283 282 282 281 280 279
275 274 274 274 274 273 273 272 272 271 271 271 271 271 270 270 270 270 270 271 271 271 272 273 274 275 276 277 278 280 281 283 283 283 283 283 284 284 283 282 281 281 279
274 273 273 273 272 272 271 271 270 270 270 270 270 270 270 270 270 270 270 270 270 271 271 272 274 275 276 277 277 278 281 282 283 283 284 284 283 283 284 283 282 281 279

GFSGL_850_thetae_060.txt.gz
Theta_e
328 327 325 325 325 325 324 323 323 324 322 321 317 314 314 310 305 303 304 301 301 300 296 296 296 296 296 295 294 294 293 293 292 292 292 291 290 289 288 287 287 286 284
327 326 324 324 324 324 324 323 321 322 321 315 314 314 312 308 304 305 303 301 300 297 297 296 296 295 295 295 294 293 293 292 292 291 292 291 290 289 288 287 286 285 284
325 325 326 325 325 324 323 323 322 322 318 316 312 311 307 304 304 303 302 300 298 297 296 296 296 296 295 294 294 293 292 292 291 291 291 290 289 289 288 287 286 284 284
325 327 328 326 326 324 323 322 319 317 316 313 309 305 304 303 301 301 301 298 298 296 296 296 295 295 295 294 294 293 292 291 291 291 290 289 289 289 288 287 286 284 284
327 324 323 321 321 320 319 317 314 314 311 308 305 304 302 301 300 300 299 298 297 297 296 296 295 295 294 293 293 292 291 291 291 290 289 289 289 288 288 287 285 284 284
322 321 319 318 318 316 314 312 310 308 306 304 303 302 303 301 300 299 298 296 296 296 296 295 295 294 293 292 291 291 290 290 290 289 289 288 288 288 287 286 285 284 284
318 316 315 313 313 310 309 307 306 304 303 302 302 302 300 300 299 296 294 294 294 295 295 295 294 293 293 292 292 291 290 289 289 289 288 288 288 287 286 285 284 284 284
314 313 311 309 307 305 304 304 303 302 302 301 300 299 298 296 294 293 293 292 293 293 293 293 293 293 293 293 292 291 291 290 289 288 287 287 287 286 285 284 283 283 283
309 306 304 306 306 304 302 302 302 301 300 299 297 295 295 295 293 291 290 290 292 292 292 292 292 292 292 292 291 291 291 290 289 288 287 286 285 284 283 283 283 283 284
304 303 302 301 301 302 302 301 297 296 294 294 293 292 290 290 289 289 289 289 289 291 291 291 291 291 291 291 291 291 290 290 289 288 286 285 285 284 283 282 282 283 283
300 301 300 302 301 298 296 294 293 292 290 290 289 289 289 290 290 289 289 289 289 289 290 290 290 290 290 290 290 290 290 290 288 287 287 286 285 285 284 283 282 283 283
300 302 300 297 295 293 291 291 291 292 291 291 290 288 289 288 287 286 284 283 283 285 285 285 286 288 289 290 289 289 290 289 288 287 286 285 285 285 284 284 283 283 283
298 296 294 292 290 290 290 289 289 288 286 287 286 287 287 286 285 285 284 283 282 282 282 283 284 285 285 286 288 288 289 289 288 287 286 286 285 285 284 284 283 283 282
293 291 290 290 289 288 286 285 285 284 284 284 285 285 284 284 284 282 280 281 281 281 282 283 284 283 284 285 286 288 288 289 288 288 287 286 285 285 284 283 283 282 282
290 289 289 287 286 285 284 284 283 282 282 281 282 282 281 281 280 278 278 278 280 280 283 283 284 285 285 286 286 287 287 288 287 287 287 286 285 284 284 283 282 282 282
288 287 286 285 284 283 283 283 282 281 281 280 279 278 278 278 278 278 278 278 279 281 283 284 284 285 285 286 287 287 287 287 287 286 286 286 285 284 284 283 282 282 282
285 285 284 283 282 282 281 281 282 281 280 279 279 278 278 278 278 278 278 278 279 280 280 280 281 284 286 287 287 287 287 287 286 285 285 285 285 284 284 283 282 282 281
284 283 282 282 281 280 280 279 280 280 280 279 278 277 278 277 277 277 277 277 277 278 278 278 280 282 284 286 287 286 286 286 285 285 285 285 285 284 283 282 282 282 282
282 282 281 280 280 279 279 278 278 278 278 277 277 276 276 277 276 276 275 275 275 275 275 276 276 280 281 283 284 285 285 285 285 285 284 284 284 284 283 282 282 282 281
281 280 280 279 279 278 278 277 277 277 276 276 276 275 275 275 274 274 274 274 273 273 273 273 274 276 279 280 282 284 285 285 285 285 285 284 284 284 283 282 282 282 281
279 279 279 278 278 277 277 276 276 275 275 274 274 273 275 274 273 273 272 272 272 271 272 272 273 275 277 278 279 280 283 284 284 284 284 284 284 283 283 282 282 281 281
279 278 278 277 277 276 276 276 275 274 273 273 273 272 273 272 271 271 271 270 270 270 270 271 273 273 275 276 277 278 280 281 282 283 283 283 283 283 283 282 281 281 280
278 277 277 276 276 276 275 274 274 273 273 273 272 271 271 270 270 270 269 269 269 269 270 271 272 274 274 275 276 277 278 280 280 282 282 282 283 283 283 282 281 281 280
276 276 276 275 275 274 274 273 273 272 272 271 270 270 269 269 269 268 268 268 269 269 270 271 272 272 274 275 276 276 277 278 280 281 281 281 282 282 283 282 282 281 280
275 275 274 274 273 273 272 271 272 271 271 270 269 269 268 268 268 267 267 268 269 269 270 271 271 272 272 274 275 276 277 278 279 281 282 282 282 282 283 283 282 282 281
274 273 273 272 271 271 271 271 271 270 270 269 269 269 268 268 268 267 268 268 268 269 270 270 271 271 272 273 275 276 277 277 278 280 282 282 282 282 282 282 282 282 281

GFSGL_850_thetae_063.txt.gz
Theta_e
333 332 331 329 328 327 326 325 322 322 323 322 320 319 314 312 311 310 306 304 303 304 304 302 299 299 299 299 298 297 296 296 295 295 295 294 293 293 293 292 291 290 289
333 333 331 329 328 327 324 322 323 322 322 321 319 318 314 311 312 311 303 303 302 302 302 299 299 299 298 298 297 296 296 295 295 294 294 293 293 293 292 291 291 289 288
330 330 329 327 327 323 323 323 322 321 321 319 314 313 312 311 310 304 303 302 302 301 299 299 299 298 298 298 297 296 296 295 294 294 293 293 293 292 291 291 290 289 288
329 328 327 324 323 322 321 320 320 319 317 315 313 312 309 306 304 303 302 302 301 299 299 299 298 298 297 297 297 296 295 295 294 293 293 292 292 291 291 290 290 289 288
325 325 323 323 322 321 320 319 319 316 315 312 310 307 305 303 303 303 302 300 299 299 298 298 298 297 297 296 296 294 294 294 294 293 292 292 291 291 290 290 290 289 288
325 322 322 320 319 318 316 315 314 313 311 308 306 304 303 303 302 301 300 299 298 297 298 298 297 297 297 296 296 295 294 292 292 292 292 291 291 290 290 289 289 288 287
320 318 317 315 314 312 310 311 310 308 306 305 304 303 303 301 300 299 296 295 296 296 296 296 296 296 295 295 295 294 294 293 292 291 291 290 290 289 289 289 288 287 287
311 310 308 307 307 307 307 305 305 304 303 302 301 300 300 298 297 295 293 293 293 294 294 294 294 294 294 294 293 293 293 293 292 292 291 290 289 288 288 288 287 286 285
308 307 306 306 307 306 305 303 302 302 300 299 298 298 297 297 296 294 291 290 291 292 292 292 293 293 293 292 292 292 292 292 292 291 291 290 289 288 287 286 286 285 284
307 306 305 304 303 302 302 301 300 300 298 297 296 295 294 293 293 293 291 290 290 290 290 290 290 291 292 292 291 291 291 291 290 291 291 290 289 288 286 286 285 284 283
305 304 303 303 302 300 299 298 296 295 294 294 292 294 293 293 292 290 288 286 285 285 284 284 284 286 286 286 288 290 290 290 290 290 290 290 289 287 286 285 284 284 283
302 300 300 298 296 296 296 295 294 294 294 293 291 289 290 289 288 287 286 285 284 283 282 282 282 281 282 282 283 283 284 287 288 290 289 290 289 287 286 286 285 285 284
299 297 296 295 294 293 293 292 291 290 290 289 288 288 288 287 286 286 285 282 281 281 280 280 280 281 282 284 284 284 285 285 287 288 288 289 288 287 287 286 286 285 284
296 295 293 292 290 289 289 288 288 288 286 285 286 287 286 284 284 283 280 280 280 279 279 280 281 284 284 285 285 286 286 286 286 288 288 288 288 287 286 286 285 285 284
293 291 290 289 288 288 287 286 285 285 284 283 283 282 281 280 281 279 278 278 278 278 279 280 283 284 284 285 286 286 286 287 287 287 288 288 288 287 287 286 285 284 284
289 289 288 287 286 286 286 286 285 283 282 282 281 280 279 279 278 278 278 278 278 278 279 281 281 281 282 282 283 285 287 287 287 288 288 287 287 287 286 286 285 285 284
288 287 286 285 285 284 284 284 285 284 282 282 281 280 279 279 278 278 278 278 278 278 279 279 279 279 279 280 282 283 286 287 288 287 287 286 287 286 286 286 285 284 284
286 285 284 284 284 283 283 282 283 282 282 282 281 279 278 278 278 277 278 278 278 278 278 278 277 277 277 277 280 282 284 286 287 286 286 286 286 286 286 285 285 284 283
284 283 283 282 282 281 280 280 281 281 281 280 280 279 278 277 277 277 276 276 276 277 276 276 276 275 275 275 277 280 282 283 285 286 286 286 285 286 285 285 285 284 283
282 281 281 280 280 280 279 279 279 279 279 279 278 278 277 276 276 276 276 275 275 275 274 274 274 273 273 273 275 277 279 281 283 284 285 285 285 285 285 285 284 283 283
280 281 280 279 279 278 278 278 277 277 277 277 277 276 275 274 273 275 274 274 274 273 272 272 271 271 271 272 272 274 277 278 279 280 283 285 285 285 285 284 284 283 283
280 279 279 278 277 277 277 276 276 276 276 275 275 274 273 273 273 273 273 272 272 271 271 271 270 270 270 270 271 272 275 276 277 277 280 283 283 284 284 284 284 283 282
279 278 277 277 277 276 275 275 274 274 274 273 273 273 272 272 272 271 271 270 270 270 269 269 268 269 269 269 269 270 271 275 275 276 278 281 282 283 284 284 283 283 282
277 277 276 275 274 275 274 273 273 273 272 272 272 271 271 271 270 270 269 269 268 268 267 267 267 268 268 268 269 270 272 274 275 276 276 279 281 282 283 283 283 283 282
276 275 274 273 273 273 272 272 272 271 271 270 270 270 270 269 269 269 268 268 267 267 267 269 269 267 267 269 270 271 272 274 275 276 276 278 280 281 282 283 283 283 282
273 273 272 272 272 271 271 270 270 270 269 269 268 268 268 268 267 267 267 266 266 267 269 269 269 269 270 271 271 271 272 274 275 276 276 278 280 281 282 283 283 283 282

GFSGL_850_thetae_066.txt.gz
Theta_e
332 331 331 331 332 330 328 327 326 326 324 322 321 321 321 320 318 313 311 311 310 307 304 304 304 304 303 299 299 299 298 297 297 296 296 295 295 294 294 293 293 292 292
333 332 332 332 331 328 328 327 326 325 322 323 320 320 320 317 313 312 311 310 307 304 303 304 303 300 299 299 299 298 298 297 297 296 295 295 294 294 293 293 293 292 291
333 331 330 331 328 327 325 325 323 322 321 320 320 318 315 313 311 309 308 304 303 303 303 302 300 300 299 299 298 298 298 297 296 296 296 295 295 294 293 293 292 292 291
331 331 331 330 327 326 323 322 322 321 320 318 316 314 313 311 309 307 304 303 303 303 300 299 300 299 299 298 298 298 297 297 297 296 295 295 295 294 293 292 291 291 290
330 329 328 326 325 321 321 321 320 319 318 316 314 312 310 307 306 304 303 303 302 300 299 299 299 298 298 298 297 297 297 296 296 295 294 293 293 293 292 291 291 290 289
327 327 326 323 321 320 319 319 317 315 313 312 310 308 306 304 303 303 302 300 299 298 298 297 298 298 297 297 297 297 297 296 295 295 295 294 293 292 292 291 290 290 289
322 321 320 319 318 317 314 312 312 311 310 308 306 305 304 303 302 300 298 296 294 294 295 295 295 295 295 295 295 294 294 295 294 294 294 294 293 292 291 290 289 288 288
318 316 315 313 311 309 309 309 308 307 306 304 303 303 301 299 298 297 295 294 293 292 292 293 293 293 293 293 293 293 293 293 292 293 293 292 292 292 292 291 289 288 288
310 309 307 307 305 305 306 306 304 303 302 301 299 298 298 297 297 296 295 293 291 290 290 289 290 290 290 291 292 292 291 291 291 291 291 291 291 291 291 290 289 288 288
307 307 306 305 304 305 304 303 301 300 299 299 297 297 296 294 294 293 293 292 290 287 286 285 285 284 283 283 283 283 284 284 285 285 288 290 290 290 291 290 289 288 287
307 305 304 303 303 302 301 300 299 298 297 296 294 293 294 293 293 291 289 287 286 285 284 283 283 283 282 281 281 281 281 281 282 283 283 283 287 290 289 290 289 287 286
305 304 303 301 300 299 298 296 295 295 295 294 293 291 289 289 289 288 286 285 284 282 282 282 282 281 281 282 284 285 285 284 284 284 285 286 287 288 289 289 288 287 286
302 300 299 297 296 296 295 294 294 292 291 290 289 288 288 288 288 286 285 284 281 281 281 281 280 280 281 283 284 285 285 286 286 286 286 286 285 287 289 289 288 286 286
299 297 296 294 293 292 291 289 290 290 289 288 286 286 287 286 284 283 282 281 281 280 280 280 280 281 281 281 282 283 283 284 286 287 286 286 287 287 289 289 287 287 286
296 294 294 292 290 289 289 289 288 287 285 284 284 284 283 282 281 280 280 280 280 279 279 279 280 280 280 279 280 281 282 283 284 287 287 287 287 287 288 288 287 286 286
292 291 290 289 288 288 287 287 286 285 284 283 282 281 281 281 280 280 279 279 279 278 279 279 279 279 278 278 278 278 280 282 283 287 288 287 287 288 287 287 286 286 286
290 290 288 287 287 286 286 285 285 285 284 283 283 282 281 280 280 279 278 278 278 278 278 278 278 277 277 276 276 276 278 280 282 283 287 287 288 288 287 286 286 286 286
288 286 286 285 285 284 284 284 283 284 283 283 282 281 280 279 279 278 277 277 277 277 277 277 276 276 275 275 275 274 276 279 281 283 284 286 286 286 286 286 286 286 286
285 285 285 284 283 283 282 281 281 281 281 281 280 280 280 279 279 277 277 277 276 275 275 275 274 274 274 273 273 273 273 275 278 280 281 283 285 286 285 286 286 285 285
283 283 284 283 282 282 281 280 280 280 280 279 279 279 278 278 277 276 276 275 275 274 274 273 273 273 272 272 271 272 272 274 276 277 278 280 283 285 285 285 285 285 285
288 285 282 281 280 280 280 279 278 278 278 278 277 277 276 276 275 274 274 274 273 273 272 272 272 271 271 270 270 270 270 271 273 275 276 278 280 283 284 285 285 286 285
283 281 280 279 279 278 278 277 277 277 276 276 276 275 275 274 274 273 273 272 272 271 271 270 270 270 269 269 269 269 269 270 270 272 274 276 278 280 283 284 285 285 284
280 279 278 278 277 277 276 276 276 275 275 275 274 273 273 273 272 272 271 271 270 270 270 269 269 269 269 269 269 268 268 268 270 271 273 275 277 278 280 282 283 284 284
278 277 277 276 276 275 275 275 274 274 273 273 272 272 272 271 271 270 270 270 269 269 269 269 269 269 270 269 268 268 269 269 270 270 271 274 275 277 279 281 282 283 284
276 276 275 275 274 274 273 273 273 272 272 271 271 270 270 269 269 269 268 268 268 268 268 269 269 270 270 270 270 270 269 268 268 270 272 273 275 277 278 280 282 282 283
275 274 273 273 273 273 272 272 271 271 270 270 269 269 268 268 267 267 267 267 266 267 269 269 269 270 270 270 270 270 270 271 271 272 272 274 275 277 278 279 281 282 283

GFSGL_850_thetae_069.txt.gz
Theta_e
329 327 328 328 328 330 328 328 327 327 323 324 324 323 322 320 321 320 318 316 313 311 311 310 307 305 305 304 303 301 299 299 298 298 298 297 296 295 294 294 294 294 293
330 330 329 329 329 328 328 327 319 321 327 324 324 323 321 321 320 319 316 313 311 310 308 306 304 304 303 301 300 299 299 299 298 298 298 297 296 295 295 295 294 294 293
330 330 330 330 329 326 321 323 325 326 325 323 321 320 319 319 318 316 313 310 309 307 306 304 304 303 301 300 299 299 299 298 298 298 297 297 296 296 295 295 294 294 293
322 322 329 328 328 327 326 325 324 322 321 320 320 319 319 316 313 312 310 308 307 304 304 303 302 300 299 299 299 299 298 298 298 297 297 297 297 296 295 294 294 293 293
327 329 329 329 327 325 323 323 321 321 321 320 319 316 313 311 310 309 308 306 304 303 302 300 299 299 298 298 298 298 298 297 297 297 297 297 296 295 295 294 293 292 291
330 329 327 326 325 323 322 322 321 319 318 316 314 312 311 309 308 306 304 303 302 300 299 297 297 297 297 296 296 296 295 294 295 295 294 294 295 295 294 294 293 292 291
325 325 325 323 323 321 320 319 317 315 314 313 311 309 307 306 304 303 302 300 297 295 294 293 293 293 293 293 292 293 293 294 294 293 292 292 292 292 293 293 292 292 291
324 323 321 320 319 317 315 314 312 311 310 309 306 305 303 303 301 299 297 295 294 293 292 291 291 291 291 291 291 290 289 288 288 288 289 289 290 291 291 291 291 291 291
321 320 317 315 313 311 311 311 309 308 305 303 302 300 299 299 298 297 296 294 292 292 291 290 288 286 285 284 284 284 284 284 283 282 282 281 282 283 285 289 290 290 291
315 313 312 310 310 309 307 306 305 302 301 299 298 298 297 297 296 296 293 293 292 290 287 285 285 284 283 283 282 282 282 283 284 284 284 283 283 282 282 282 287 290 290
311 308 306 306 306 305 304 303 301 300 299 299 297 296 296 295 293 293 292 290 288 286 285 285 284 283 282 282 281 282 283 283 284 285 285 286 285 285 284 286 286 289 289
308 307 305 305 303 302 301 300 299 299 298 297 296 294 293 292 290 289 288 287 285 284 283 283 282 282 281 281 281 281 281 282 283 283 283 285 286 285 285 285 286 288 289
307 305 303 302 301 300 299 298 297 296 295 294 293 292 290 289 289 288 287 285 283 282 282 281 281 280 280 281 280 279 279 281 282 283 283 283 285 286 286 286 286 287 289
305 302 300 299 298 297 296 295 294 294 293 292 290 289 288 288 287 287 284 282 282 281 281 281 280 280 280 279 279 279 278 279 280 281 283 283 285 286 287 286 286 287 288
301 299 297 296 295 295 294 293 291 290 289 288 287 286 286 285 284 282 282 281 281 280 280 279 279 279 279 279 278 278 278 277 279 280 283 283 286 286 287 287 287 287 287
297 295 293 292 290 290 289 289 287 286 285 284 284 283 282 282 281 281 281 280 279 279 279 279 278 278 278 277 277 277 276 276 277 278 280 283 282 285 286 287 287 287 286
295 293 291 289 288 288 287 287 286 286 285 284 284 283 282 282 281 280 280 279 278 278 278 278 277 277 276 275 275 275 275 275 275 276 278 281 282 284 286 287 287 286 286
291 290 289 287 287 286 286 285 285 284 284 283 282 282 281 280 280 280 279 277 278 277 277 276 275 275 274 274 274 273 273 274 274 275 276 278 280 281 285 286 287 286 286
288 286 286 286 285 284 284 284 282 282 281 281 281 281 280 280 279 279 278 276 276 276 275 275 274 274 273 273 272 272 272 272 272 274 275 276 277 280 281 284 285 285 285
287 287 284 284 286 285 284 284 282 281 280 280 280 279 279 278 278 277 276 275 275 274 274 273 273 272 272 271 271 271 271 271 271 272 273 275 276 277 279 280 283 284 286
286 287 287 285 285 284 282 281 279 279 278 278 278 278 277 277 276 275 274 273 273 273 272 272 271 271 271 271 270 270 270 270 270 270 271 272 274 276 277 278 281 284 285
285 284 283 283 281 280 279 278 277 277 276 276 276 276 275 275 274 273 272 272 272 271 271 270 270 270 270 270 269 269 269 269 269 270 270 271 272 275 276 277 280 282 283
283 281 280 280 279 278 277 276 276 276 275 275 275 274 273 273 272 272 271 271 270 270 269 269 269 270 270 269 269 269 269 269 269 269 269 270 272 274 275 276 278 281 282
279 278 277 276 276 276 275 275 274 274 273 273 273 272 272 271 271 270 270 269 269 269 268 269 269 269 269 269 270 270 270 269 269 268 268 269 271 273 274 275 277 279 280
276 275 275 275 274 274 273 273 273 272 272 272 271 271 270 269 269 268 268 268 268 268 268 268 268 269 269 270 270 270 270 270 269 268 269 270 271 273 274 275 276 278 280
274 274 273 273 272 272 272 271 271 271 270 270 269 269 268 267 267 267 267 267 267 267 268 268 269 269 269 270 270 270 270 270 270 271 271 271 271 273 274 275 276 277 280

GFSGL_850_thetae_072.txt.gz
Theta_e
323 323 323 324 325 325 324 324 324 323 322 322 319 318 323 324 321 321 321 320 318 316 314 313 312 311 309 307 305 304 303 302 300 299 299 298 298 298 298 297 295 294 294
324 324 325 326 326 326 327 325 325 323 321 318 323 321 324 323 323 321 319 319 317 315 312 311 310 307 305 304 304 302 300 299 299 299 299 298 298 297 297 296 296 296 295
326 327 326 327 326 326 326 323 325 322 318 321 322 323 324 322 320 320 319 317 314 311 310 309 306 304 304 303 302 299 299 298 298 298 298 298 297 296 296 297 296 296 295
329 327 320 324 328 327 325 326 324 323 324 324 324 323 321 320 319 318 316 314 311 310 308 305 304 303 303 300 299 298 298 298 297 297 298 297 297 297 297 296 296 296 295
330 327 322 322 321 326 327 326 325 324 324 323 321 319 319 319 317 315 312 310 309 307 304 303 303 300 298 298 298 298 297 296 296 295 295 295 294 294 294 294 293 294 294
330 328 325 323 326 327 325 324 322 321 320 320 320 318 317 315 313 310 309 307 305 304 303 302 299 297 297 297 296 296 296 295 295 294 294 293 293 292 291 291 292 292 292
329 327 324 325 323 323 321 322 320 320 319 318 316 314 312 311 309 307 305 304 303 302 301 296 295 294 294 293 293 292 292 292 292 292 290 288 286 284 283 285 287 289 290
327 326 325 323 321 320 320 319 318 317 315 314 312 310 309 307 305 304 303 302 299 296 294 292 291 290 290 290 289 288 286 285 284 284 283 283 283 283 282 282 281 282 285
324 324 323 321 320 318 316 315 314 314 311 310 309 307 305 304 303 302 300 297 295 293 292 291 291 289 287 285 285 284 284 284 283 283 283 283 283 284 285 284 284 283 284
321 320 318 317 316 314 312 313 311 310 308 305 304 302 301 301 300 299 296 295 293 292 292 289 286 285 284 284 283 283 283 283 282 282 281 282 283 283 285 286 285 284 285
317 316 314 313 312 311 310 308 307 304 302 301 300 299 298 298 296 295 294 293 292 290 287 285 284 283 282 282 282 282 281 281 281 280 281 282 283 284 284 284 285 285 285
314 312 311 309 307 306 305 304 302 301 300 299 298 296 295 295 294 293 292 290 288 287 285 283 282 282 281 281 281 281 281 280 280 280 280 281 283 284 284 284 285 286 286
310 308 306 305 304 303 302 301 300 300 299 298 296 295 295 293 292 290 289 288 287 284 282 281 281 281 280 280 280 280 280 279 279 279 279 280 281 283 284 285 286 286 286
308 306 304 303 301 300 300 300 298 298 297 295 294 293 292 290 289 288 287 286 283 281 281 280 280 280 280 280 279 279 278 278 278 277 278 278 280 283 283 284 285 286 286
306 304 303 301 300 299 296 295 295 294 293 293 292 290 289 288 287 286 285 282 281 280 280 280 279 279 279 279 278 278 277 277 277 276 277 277 279 281 283 284 285 286 287
304 300 298 298 297 295 294 293 291 290 290 289 287 286 286 284 282 281 281 280 280 280 279 279 279 278 278 277 277 276 276 275 275 275 275 276 277 280 282 284 286 287 287
301 297 294 292 291 290 289 288 288 286 286 285 285 284 283 282 282 281 280 280 279 278 278 278 277 276 276 276 275 275 274 273 273 273 273 274 275 278 280 281 283 285 286
295 292 291 289 289 289 288 287 287 285 285 286 284 282 282 281 281 280 280 279 279 277 277 276 276 275 275 274 274 273 273 272 272 272 272 273 274 276 278 280 280 282 284
292 291 290 288 287 287 287 285 284 286 283 282 282 281 281 280 280 279 279 278 277 276 275 275 274 274 273 273 272 272 272 272 272 271 272 272 273 274 276 277 279 280 282
290 289 288 288 287 286 285 285 284 282 282 281 280 280 279 279 278 278 277 276 275 274 274 273 273 272 272 271 271 271 271 271 271 271 271 271 271 272 274 275 277 278 281
287 287 286 286 285 284 283 282 281 280 279 279 278 278 277 277 276 275 274 274 273 273 272 272 271 270 270 270 270 270 270 271 270 270 270 270 270 271 272 274 275 277 278
286 285 284 284 283 282 281 280 279 278 277 276 276 276 275 275 274 273 272 272 271 271 270 270 270 269 269 269 269 269 270 270 270 270 270 270 270 270 271 273 274 276 277
283 282 281 280 279 278 277 276 276 275 275 275 274 274 273 273 272 271 271 270 270 269 269 269 269 268 269 269 269 269 269 270 270 270 269 269 269 270 271 272 274 275 276
280 278 277 276 275 275 274 274 274 273 273 272 272 272 271 271 270 269 269 269 268 268 268 268 268 268 268 269 269 269 269 270 270 269 269 269 269 270 271 272 273 274 276
276 275 275 274 274 273 273 272 272 272 271 270 270 269 269 268 268 267 267 266 266 267 267 267 267 268 268 269 269 269 270 270 270 269 269 269 270 270 271 272 273 274 276
274 274 273 272 272 271 271 270 270 269 269 269 268 268 267 267 266 266 265 265 266 266 267 267 268 268 269 269 269 270 270 270 270 270 270 270 270 271 272 272 273 274 275

GFSGL_850_thetae_075.txt.gz
Theta_e
319 319 320 320 320 319 318 318 320 322 323 324 323 321 321 320 320 321 320 323 321 322 320 319 316 314 313 311 310 308 307 305 304 303 302 301 299 299 298 298 297 297 297
321 321 321 321 321 321 322 322 323 323 323 322 320 320 319 319 320 317 321 322 321 321 319 318 314 312 311 309 307 305 304 304 301 299 299 298 298 297 297 297 296 296 296
323 324 324 323 323 323 323 323 323 323 323 320 318 320 321 319 323 321 321 322 321 318 317 314 312 310 308 307 305 304 303 301 300 299 298 297 297 297 297 296 296 295 295
325 324 325 325 324 325 325 325 324 323 322 320 321 323 321 320 320 320 322 321 319 317 314 311 310 308 305 304 304 302 301 300 298 298 298 297 296 295 295 294 294 294 294
326 325 325 325 325 325 326 327 327 326 323 321 324 320 321 322 322 322 320 319 317 313 310 309 306 305 304 303 302 300 298 297 297 296 296 295 295 294 293 292 291 290 289
328 327 327 327 328 325 324 324 328 325 326 325 322 322 322 320 319 319 318 314 311 309 308 306 305 303 303 301 298 296 296 296 295 295 294 292 291 290 286 284 283 283 283
328 329 328 328 324 322 323 324 323 322 323 322 322 320 319 318 317 315 313 310 308 307 304 303 303 301 298 297 296 295 294 293 291 290 288 285 284 283 283 283 284 284 284
329 329 328 327 324 324 325 324 323 322 321 320 319 318 317 314 312 310 308 307 305 303 302 300 298 295 294 292 291 290 289 287 285 284 284 283 283 282 282 282 283 284 285
328 326 324 323 323 322 322 321 320 319 319 317 315 314 312 310 308 306 304 303 302 300 297 294 293 292 291 290 287 285 284 284 284 284 283 283 282 282 282 283 283 284 284
324 324 324 323 322 321 320 319 317 315 314 312 310 309 307 306 303 302 302 300 299 296 294 293 291 290 286 284 284 283 284 284 284 283 282 282 281 281 281 283 283 283 283
323 322 319 318 318 317 316 314 312 311 309 308 307 305 303 301 301 300 299 297 295 294 292 291 287 285 283 283 283 282 282 281 281 281 281 281 280 280 280 282 283 283 283
318 316 316 315 313 312 310 309 308 307 306 304 303 302 300 299 298 297 296 294 293 291 289 286 283 282 282 281 281 280 280 280 280 280 280 279 279 279 280 280 283 284 284
314 313 311 310 308 307 307 306 304 303 302 301 300 299 297 296 295 293 293 291 289 288 286 283 281 281 280 280 280 280 279 279 279 279 279 279 278 278 279 279 282 283 284
311 309 306 305 304 303 303 302 301 300 299 299 298 297 295 294 293 290 289 288 287 286 282 281 280 280 279 279 279 279 279 278 278 278 278 278 278 278 278 278 281 283 284
307 306 305 303 302 300 300 300 299 298 296 296 294 293 292 291 289 288 287 286 284 281 280 280 279 279 279 279 278 278 277 277 277 276 276 276 277 277 277 277 279 282 283
307 305 304 303 301 300 299 297 294 293 291 291 289 289 288 287 286 284 282 281 280 280 279 278 278 278 277 277 277 276 276 275 275 275 274 275 275 275 276 276 277 280 281
306 303 300 298 295 293 292 291 292 289 287 286 284 283 283 282 283 282 281 280 280 279 278 278 277 276 276 275 275 274 274 273 273 273 273 274 274 274 274 275 276 278 281
299 296 295 291 290 289 289 289 288 287 286 286 286 287 286 284 282 282 281 280 279 278 277 276 276 275 275 274 273 273 272 272 272 272 272 273 273 272 273 273 275 276 278
292 291 292 291 290 290 289 288 287 287 286 285 284 282 281 281 280 279 279 278 277 276 276 275 274 274 273 272 272 271 271 271 271 272 272 272 271 271 272 272 273 275 276
292 290 290 288 287 286 286 285 284 283 282 281 281 280 279 279 278 278 277 276 275 274 274 273 272 272 271 271 270 270 270 271 271 271 271 271 271 271 271 271 272 273 275
288 287 286 286 285 284 283 282 282 281 280 279 278 277 277 277 276 275 274 274 273 272 272 271 271 270 270 270 269 270 270 270 270 270 270 270 270 270 270 270 271 272 274
286 285 284 283 282 281 281 280 279 278 277 276 276 275 275 274 273 273 272 271 271 270 270 269 269 269 269 268 268 268 269 269 270 270 270 270 270 270 270 270 270 271 273
283 282 282 281 280 279 277 276 275 275 274 274 273 273 272 272 271 270 270 269 269 268 268 268 267 267 267 267 268 268 269 269 269 269 270 270 270 270 270 270 270 271 272
280 279 278 277 276 275 274 274 273 273 272 272 271 271 270 269 269 268 268 267 267 266 266 266 266 266 266 267 268 268 269 269 269 269 269 269 269 269 270 270 270 271 272
278 277 276 275 274 273 272 272 271 270 270 269 269 268 268 267 267 267 266 266 265 265 265 265 266 266 267 267 268 268 269 269 269 269 269 269 270 270 270 270 271 271 272
275 274 273 272 271 271 270 269 269 268 268 267 267 266 266 265 265 265 265 265 265 265 266 266 266 266 267 268 268 268 269 269 269 269 269 270 271 271 271 271 271 271 272

GFSGL_850_thetae_078.txt.gz
Theta_e
316 316 316 316 315 315 315 315 316 317 317 315 314 317 320 323 323 322 321 320 319 321 321 320 321 319 318 316 314 312 311 310 307 306 306 304 303 301 299 298 298 297 297
316 316 315 315 316 316 315 315 316 315 314 316 319 320 321 321 321 323 321 321 319 319 318 321 319 318 317 315 313 312 310 307 305 304 303 301 300 299 298 296 297 296 296
318 318 318 317 320 321 320 319 319 319 319 319 321 321 322 322 320 319 320 319 318 319 319 320 318 317 314 313 311 309 307 305 303 302 300 300 298 297 297 295 294 293 292
323 320 320 321 322 321 322 321 321 321 321 322 322 323 322 322 320 319 321 321 319 321 321 317 316 315 313 311 308 307 305 303 302 301 299 297 297 296 295 293 292 290 288
323 323 323 323 323 324 323 323 323 323 323 324 324 322 321 322 320 321 321 319 319 320 315 313 312 311 308 308 306 304 303 301 300 297 297 296 295 293 291 288 286 285 286
324 324 324 323 323 324 323 323 323 323 324 324 325 325 323 322 322 321 320 319 317 315 313 312 310 306 307 303 304 302 301 298 296 295 295 293 290 288 285 285 284 284 284
325 325 325 324 324 324 323 323 325 326 324 322 323 323 324 323 321 320 319 317 314 312 310 308 308 305 304 302 301 298 296 295 293 291 289 287 285 284 284 284 283 283 283
325 326 326 326 325 325 325 325 322 323 322 321 321 321 321 320 318 317 316 313 311 308 307 305 303 302 301 298 295 293 291 290 288 286 285 284 284 283 283 282 282 282 283
327 327 327 326 326 325 324 322 323 323 322 321 320 319 317 315 313 311 310 308 307 305 302 301 300 297 294 293 291 290 287 285 284 284 284 283 283 282 282 281 281 282 282
327 326 326 324 323 323 321 321 322 320 318 318 315 312 310 310 306 305 305 304 303 302 300 297 294 293 291 290 287 284 284 284 284 283 283 282 282 281 281 280 280 281 282
323 323 323 322 321 320 319 317 316 316 314 313 311 309 307 306 304 302 301 300 299 297 295 294 292 290 287 285 284 283 283 282 282 282 282 282 281 281 280 280 279 279 281
322 320 319 317 316 316 314 314 313 312 311 309 307 306 303 302 301 300 299 297 296 294 293 291 289 286 284 283 282 282 281 281 281 281 280 280 280 279 279 279 279 279 279
317 314 315 314 312 311 310 310 309 308 307 306 304 303 302 300 298 297 296 295 293 292 290 288 286 283 282 281 281 280 280 280 279 279 279 279 278 278 278 278 278 278 278
314 313 311 310 309 308 307 306 305 304 303 302 301 300 298 297 295 294 292 292 290 289 287 285 282 281 280 280 280 279 279 279 279 278 278 277 277 277 277 276 277 277 278
310 308 307 306 305 304 303 302 301 301 300 299 299 298 296 294 293 291 290 289 288 285 282 281 280 280 279 279 279 278 278 278 277 277 276 276 276 276 276 276 276 276 276
308 307 306 305 303 302 301 300 299 297 296 295 293 292 291 291 289 288 287 284 282 281 281 280 280 279 278 277 277 277 277 276 275 275 275 274 274 274 275 275 275 274 275
306 305 303 302 300 299 297 295 295 293 293 292 290 287 286 284 283 283 284 283 281 281 280 280 279 279 277 276 276 275 275 274 273 273 273 272 273 273 273 274 273 273 274
302 299 297 294 294 293 292 292 291 290 288 287 286 286 284 283 282 281 281 280 280 279 278 277 276 276 275 274 274 273 273 272 272 271 271 271 271 272 272 272 272 272 273
295 294 293 292 291 290 289 288 287 286 285 284 283 282 281 281 280 279 279 278 277 276 275 274 274 273 273 272 272 271 271 270 270 270 270 270 270 270 270 271 271 271 271
292 291 291 290 288 287 287 286 285 284 283 282 281 280 279 278 278 277 276 275 274 273 273 272 272 271 271 270 270 269 269 269 269 269 269 269 270 270 270 270 270 270 271
289 288 287 286 286 285 284 283 282 281 280 279 278 277 276 276 275 274 273 273 272 271 271 270 270 269 269 269 268 268 268 268 268 268 269 269 269 270 270 270 270 270 270
286 285 284 284 283 282 281 280 279 278 277 276 275 274 274 273 273 272 271 271 270 269 269 268 268 267 267 267 266 266 267 267 267 268 268 269 269 269 269 270 270 270 270
284 283 282 281 280 278 277 276 275 275 274 273 273 272 271 271 270 270 269 268 268 267 267 266 266 266 266 266 266 266 266 267 267 268 268 269 269 269 269 270 270 270 270
280 279 278 277 276 275 275 274 273 272 271 271 270 270 269 268 268 267 267 266 266 266 265 265 265 265 265 266 266 266 266 267 267 268 268 268 269 269 269 270 270 270 270
277 276 275 274 273 272 271 271 270 270 269 269 269 268 268 267 267 266 266 266 266 266 266 266 266 266 266 266 266 266 267 267 267 267 267 268 269 269 270 270 270 270 270
273 272 272 271 271 270 270 269 269 269 269 269 268 268 267 267 267 266 266 266 266 266 266 266 266 266 266 266 267 267 267 268 268 268 268 268 269 269 270 270 270 270 270

GFSGL_850_thetae_081.txt.gz
Theta_e
316 317 319 320 320 317 315 315 315 315 315 315 314 314 313 314 319 318 317 320 320 321 320 317 319 320 320 319 319 316 315 313 312 310 309 308 306 305 304 301 299 299 298
314 315 316 316 318 318 317 317 316 315 315 314 314 313 315 318 318 319 320 320 321 322 321 320 318 318 319 318 317 315 314 312 311 310 308 306 306 304 302 300 299 296 296
319 316 315 315 315 315 318 317 315 315 315 315 314 315 316 317 318 319 320 321 320 321 320 319 319 320 319 317 315 313 312 311 310 308 306 304 303 301 300 298 296 295 293
322 319 318 318 315 315 319 317 317 316 315 316 317 317 318 320 321 321 322 322 321 319 321 319 318 319 319 315 312 312 310 309 308 305 304 302 300 299 297 295 293 290 288
325 323 322 321 322 318 318 318 317 319 320 321 321 322 322 322 322 322 322 322 320 321 319 318 318 317 316 313 311 309 308 305 304 303 301 300 297 296 294 291 288 286 286
324 324 324 322 320 321 322 322 322 321 321 322 323 323 323 323 322 323 322 321 321 318 319 318 314 313 311 310 308 305 305 302 300 299 297 296 294 291 288 285 285 284 285
323 323 323 323 322 322 321 321 322 322 322 323 322 322 322 321 323 321 321 319 318 318 314 312 311 309 306 304 303 301 300 299 298 296 293 290 288 285 284 284 284 283 284
323 323 323 323 323 323 323 322 322 323 322 322 321 322 322 320 319 320 319 318 316 312 309 307 307 304 303 302 300 298 296 294 292 290 287 285 284 284 283 283 283 283 283
323 323 324 324 323 322 321 322 322 323 321 321 320 320 319 317 316 314 313 313 310 308 305 303 301 300 299 298 295 293 291 289 286 284 284 283 283 283 282 282 282 282 283
324 325 325 325 324 323 322 322 321 321 319 318 318 315 314 312 308 307 307 307 306 304 302 300 298 297 295 293 291 287 285 284 283 283 282 282 282 282 281 281 281 281 281
324 323 323 322 322 322 322 320 318 319 317 314 313 311 309 307 305 303 302 302 302 301 298 296 295 294 292 289 286 284 283 283 282 282 282 281 281 281 281 281 281 280 279
324 322 322 322 321 320 318 317 315 314 312 310 309 307 304 303 302 300 300 299 298 297 295 293 292 290 287 285 283 282 282 282 281 281 280 281 282 281 281 280 279 279 278
322 321 319 318 316 315 314 312 311 310 309 308 306 304 302 300 299 298 297 297 296 294 292 291 289 286 284 282 282 282 281 281 281 280 280 282 281 279 278 278 278 278 278
317 315 314 313 312 310 309 308 307 307 305 304 302 302 300 299 297 296 295 293 292 291 290 288 285 283 282 281 280 280 279 279 278 278 278 278 277 277 278 278 277 277 277
313 311 310 308 307 306 305 304 304 303 302 301 300 299 297 296 294 292 291 291 290 289 287 283 282 282 281 280 279 278 278 277 278 278 277 277 278 277 275 275 275 275 275
310 308 307 306 304 303 302 300 298 298 298 297 296 294 293 291 290 290 288 287 284 283 283 283 283 281 280 279 278 277 277 276 275 276 275 274 274 274 273 272 273 272 272
308 306 305 303 300 299 297 296 296 292 293 293 292 291 290 288 286 285 284 284 283 282 281 280 279 278 278 276 275 274 273 273 274 273 271 270 271 270 270 270 270 270 271
303 300 298 296 295 294 293 293 292 291 290 288 286 286 285 284 284 283 282 281 280 279 278 277 276 275 274 273 272 272 271 270 270 270 269 269 269 268 268 269 269 269 269
296 295 294 292 292 292 291 290 289 288 286 285 284 283 282 281 280 280 279 278 277 275 274 273 272 272 271 271 270 269 269 269 269 269 268 268 267 267 267 268 268 268 268
293 292 292 291 289 289 288 287 286 285 283 282 281 280 279 278 278 277 276 275 274 273 273 271 270 269 269 268 268 267 267 267 266 266 266 266 266 266 266 266 267 267 268
289 289 289 288 287 286 285 284 283 281 280 279 278 277 276 276 275 274 273 273 272 271 270 270 269 269 268 267 266 265 265 265 265 266 266 266 266 266 266 266 266 267 267
288 287 286 285 284 283 282 281 279 278 277 276 275 274 274 273 272 271 271 270 269 269 268 268 267 267 267 266 266 266 266 266 266 266 266 267 267 266 266 265 266 266 266
285 285 284 282 280 278 278 277 276 275 274 273 273 272 271 271 270 269 269 268 268 268 267 267 267 267 266 266 266 266 266 266 266 266 266 267 267 266 265 266 266 266 266
281 280 279 278 276 275 274 273 273 272 271 271 270 270 270 269 269 268 268 268 268 267 267 267 267 266 266 266 266 266 266 266 266 267 266 267 267 267 267 267 267 268 268
276 275 274 273 273 272 272 271 271 271 270 270 269 269 268 268 268 268 268 267 267 267 267 267 267 267 267 267 266 266 267 267 266 266 267 267 267 268 268 268 269 269 269
273 272 272 271 271 271 270 270 270 269 269 269 268 268 268 268 268 267 267 267 267 267 267 267 267 267 267 267 267 267 267 267 267 267 267 268 268 268 268 268 269 269 269

GFSGL_850_thetae_084.txt.gz
Theta_e
323 323 322 322 321 321 321 321 320 320 321 321 319 318 317 316 316 316 317 316 319 320 318 319 319 320 320 320 318 318 317 317 314 314 313 313 311 310 308 306 304 303 301
323 323 322 322 321 321 321 321 319 318 319 318 317 317 317 317 316 318 320 319 318 319 319 320 320 321 321 319 318 317 316 317 316 316 313 311 310 309 306 306 303 300 299
322 321 321 320 320 320 320 320 319 318 317 320 320 319 316 316 316 316 315 315 317 319 319 321 320 320 320 320 319 319 319 316 315 313 311 310 308 306 305 303 302 300 298
321 320 317 316 317 319 320 321 320 320 320 320 320 319 317 317 315 315 315 317 320 320 321 321 320 320 320 319 318 317 316 314 311 311 311 306 305 304 302 301 298 296 294
322 321 320 317 316 315 316 317 319 318 319 320 320 320 320 319 320 321 320 321 322 322 321 321 320 320 318 318 316 314 312 310 311 309 304 303 301 300 298 296 294 292 290
324 323 322 321 319 320 317 318 319 319 319 320 319 318 320 322 323 323 323 323 322 322 322 320 319 318 315 314 312 310 308 308 305 303 301 300 299 295 294 292 290 289 289
325 324 324 323 322 320 320 320 321 321 319 319 320 321 322 323 323 322 322 322 321 320 319 318 316 314 311 309 307 304 303 302 301 300 298 297 294 291 289 288 288 288 288
323 323 323 323 323 322 321 321 321 320 320 319 321 323 322 323 322 322 321 319 318 316 314 313 309 307 305 304 303 302 301 300 299 297 294 291 289 286 285 284 285 285 285
323 323 323 323 322 322 323 323 322 322 322 323 323 323 321 321 320 319 318 316 313 311 308 306 304 303 302 300 299 299 298 296 291 289 288 288 285 284 284 283 283 285 286
323 323 323 323 323 323 323 322 322 323 323 322 321 319 318 317 315 313 312 310 309 307 304 302 300 299 299 298 296 293 290 289 288 285 284 284 284 283 283 282 281 282 283
322 322 323 323 323 323 323 323 322 321 320 319 317 315 312 309 308 305 304 304 304 303 300 299 297 296 294 292 289 288 286 285 283 283 282 282 282 282 281 281 281 280 281
321 322 323 323 323 322 321 321 319 318 317 314 311 308 305 303 302 301 300 300 300 299 298 296 294 292 290 287 286 284 283 284 284 283 282 282 282 282 282 284 282 280 278
322 321 321 321 320 318 318 317 316 314 311 309 307 305 303 300 300 299 299 298 298 296 294 293 292 291 288 286 286 284 282 282 281 281 280 280 279 279 278 278 278 278 278
319 318 316 316 314 313 312 310 309 308 307 305 304 302 300 298 297 295 295 294 292 292 291 290 288 285 282 281 281 281 280 280 279 278 278 278 278 277 277 277 277 277 276
314 312 310 310 309 307 306 305 304 303 303 303 301 299 297 295 293 292 291 290 290 289 287 284 282 281 281 281 280 279 278 278 277 277 276 276 276 276 276 275 275 276 276
313 310 308 307 305 303 302 300 298 297 296 296 295 295 293 292 290 290 289 288 286 285 283 282 281 280 280 279 279 278 277 277 276 275 274 274 274 274 274 274 274 274 275
309 307 305 303 302 301 298 298 297 292 293 292 291 290 289 289 288 286 285 284 282 281 280 280 279 278 277 277 277 276 275 275 273 273 273 273 273 272 272 273 273 274 274
305 301 300 298 296 295 293 292 292 290 289 286 286 286 285 284 284 283 281 280 279 278 278 277 276 276 275 275 274 274 273 272 272 271 271 270 270 270 271 271 272 272 272
298 297 295 293 292 291 290 290 288 286 285 283 282 282 282 281 281 280 280 279 277 276 275 275 274 273 273 272 271 271 270 270 270 269 269 269 269 269 269 270 270 270 270
292 291 291 290 290 289 288 287 285 283 281 279 278 278 277 277 277 277 277 276 273 273 272 271 271 270 270 269 269 269 269 269 268 268 268 268 268 268 268 268 269 269 270
291 291 290 289 288 287 286 284 283 282 279 279 280 278 277 275 274 273 272 271 270 270 269 269 269 268 268 268 268 267 267 267 267 266 266 267 267 267 267 267 268 268 269
288 288 287 287 285 284 283 280 278 277 275 274 274 275 274 273 271 270 269 269 269 268 268 267 268 267 267 266 266 266 265 265 265 265 265 265 265 266 266 267 267 268 268
286 285 284 282 280 279 278 276 275 274 273 272 271 271 270 269 269 269 268 269 268 269 268 269 269 268 268 267 267 266 265 264 264 264 264 264 265 265 266 266 267 267 268
281 280 279 278 276 275 274 273 273 272 271 270 270 269 269 269 268 268 269 269 269 269 269 268 268 268 268 268 268 267 266 266 266 267 267 265 264 264 265 265 266 266 267
276 275 275 274 273 273 272 272 271 271 270 270 269 269 269 269 269 269 269 269 269 268 268 268 268 268 268 268 268 268 268 268 268 267 267 267 267 267 266 265 265 266 266
274 273 273 273 272 272 271 271 270 270 270 269 269 269 269 269 269 269 269 268 268 268 268 268 268 268 268 268 268 268 268 268 268 268 268 268 268 268 267 266 265 266 267